FW0644 Weather Reports


Display with metric or nautical units.
time (UTC)temp
F
wind
direction
speed
MPH
gust
MPH
rain 1hr
in
rain 24hr
in
rain mn
in
humidity
%
barometer
mb
20180920203348 68 310 6.0 10.0 0.00 0.00 0.00 63 1011.9
20180920203247 68 311 4.0 10.0 0.00 0.00 0.00 63 1011.9
20180920203148 68 307 6.0 10.0 0.00 0.00 0.00 63 1011.9
20180920203048 68 307 6.0 10.0 0.00 0.00 0.00 63 1011.9
20180920202948 68 299 5.0 10.0 0.00 0.00 0.00 63 1011.9
20180920202848 68 302 5.0 10.0 0.00 0.00 0.00 63 1011.9
20180920202748 68 306 6.0 11.0 0.00 0.00 0.00 63 1011.9
20180920202647 68 310 6.0 11.0 0.00 0.00 0.00 63 1011.9
20180920202548 68 312 8.0 11.0 0.00 0.00 0.00 63 1011.9
20180920202448 68 313 4.0 11.0 0.00 0.00 0.00 63 1011.9
20180920202348 68 313 5.0 11.0 0.00 0.00 0.00 63 1011.9
20180920202248 68 315 7.0 13.0 0.00 0.00 0.00 63 1011.9
20180920202148 68 319 6.0 13.0 0.00 0.00 0.00 63 1011.9
20180920202048 68 319 5.0 13.0 0.00 0.00 0.00 62 1011.9
20180920201948 68 322 6.0 13.0 0.00 0.00 0.00 62 1011.9
20180920201848 68 323 7.0 13.0 0.00 0.00 0.00 62 1011.9
20180920201748 68 326 6.0 13.0 0.00 0.00 0.00 62 1011.9
20180920201648 68 320 4.0 13.0 0.00 0.00 0.00 62 1011.9
20180920201549 68 319 6.0 13.0 0.00 0.00 0.00 62 1011.9
20180920201447 68 319 9.0 13.0 0.00 0.00 0.00 62 1011.9
20180920201348 68 317 9.0 13.0 0.00 0.00 0.00 62 1011.9
20180920201248 68 311 9.0 13.0 0.00 0.00 0.00 62 1011.9
20180920201148 68 314 5.0 13.0 0.00 0.00 0.00 62 1011.9
20180920201056 68 314 7.0 13.0 0.00 0.00 0.00 62 1011.9
20180920200952 68 314 4.0 13.0 0.00 0.00 0.00 62 1011.9
20180920200847 68 310 8.0 13.0 0.00 0.00 0.00 61 1011.9
20180920200748 68 308 7.0 13.0 0.00 0.00 0.00 61 1011.9
20180920200648 68 306 7.0 13.0 0.00 0.00 0.00 61 1011.9
20180920200548 68 306 9.0 13.0 0.00 0.00 0.00 61 1011.9
20180920200448 68 308 8.0 13.0 0.00 0.00 0.00 61 1011.9
20180920200348 68 310 8.0 13.0 0.00 0.00 0.00 61 1011.9
20180920200248 68 310 6.0 13.0 0.00 0.00 0.00 61 1011.9
20180920200148 68 303 9.0 13.0 0.00 0.00 0.00 61 1011.9
20180920200052 68 302 9.0 13.0 0.00 0.00 0.00 61 1010.9
20180920195948 68 302 8.0 13.0 0.00 0.00 0.00 61 1010.9
20180920195848 68 300 7.0 13.0 0.00 0.00 0.00 61 1010.9
20180920195748 68 302 4.0 13.0 0.00 0.00 0.00 61 1010.9
20180920195647 68 298 8.0 13.0 0.00 0.00 0.00 61 1010.9
20180920195548 69 300 5.0 13.0 0.00 0.00 0.00 61 1010.9
20180920195448 69 302 7.0 13.0 0.00 0.00 0.00 61 1010.9
20180920195348 69 299 7.0 13.0 0.00 0.00 0.00 61 1010.9
20180920195248 69 302 9.0 13.0 0.00 0.00 0.00 61 1010.9
20180920195148 69 301 4.0 13.0 0.00 0.00 0.00 60 1010.9
20180920195048 69 299 8.0 13.0 0.00 0.00 0.00 60 1010.9
20180920194948 69 299 9.0 13.0 0.00 0.00 0.00 60 1010.9
20180920194848 69 302 9.0 13.0 0.00 0.00 0.00 60 1010.9
20180920194748 69 304 9.0 13.0 0.00 0.00 0.00 60 1010.9
20180920194648 69 309 6.0 11.0 0.00 0.00 0.00 60 1010.9
20180920194548 69 308 5.0 11.0 0.00 0.00 0.00 60 1011.9
20180920194447 69 308 8.0 11.0 0.00 0.00 0.00 60 1011.9
20180920194348 69 304 6.0 12.0 0.00 0.00 0.00 59 1011.9
20180920194248 69 304 6.0 12.0 0.00 0.00 0.00 59 1011.9
20180920194148 69 306 6.0 12.0 0.00 0.00 0.00 59 1011.9
20180920194048 69 313 6.0 12.0 0.00 0.00 0.00 59 1011.9
20180920193947 69 316 6.0 13.0 0.00 0.00 0.00 59 1011.9
20180920193847 69 315 5.0 13.0 0.00 0.00 0.00 59 1011.9
20180920193748 69 313 7.0 13.0 0.00 0.00 0.00 59 1011.9
20180920193648 69 314 8.0 13.0 0.00 0.00 0.00 59 1011.9
20180920193548 69 314 6.0 13.0 0.00 0.00 0.00 58 1011.9
20180920193448 69 312 8.0 13.0 0.00 0.00 0.00 58 1011.9
20180920193348 69 314 6.0 13.0 0.00 0.00 0.00 58 1011.9
20180920193247 69 315 7.0 13.0 0.00 0.00 0.00 58 1011.9
20180920193148 69 316 7.0 13.0 0.00 0.00 0.00 58 1011.9
20180920193048 69 316 5.0 13.0 0.00 0.00 0.00 58 1011.9
20180920192948 69 310 9.0 13.0 0.00 0.00 0.00 58 1011.9
20180920192848 69 314 9.0 13.0 0.00 0.00 0.00 58 1011.9
20180920192748 69 316 5.0 13.0 0.00 0.00 0.00 58 1011.9
20180920192648 69 313 7.0 13.0 0.00 0.00 0.00 57 1011.9
20180920192548 69 311 6.0 13.0 0.00 0.00 0.00 57 1011.9
20180920192448 69 310 8.0 13.0 0.00 0.00 0.00 57 1011.9
20180920192348 69 309 5.0 11.0 0.00 0.00 0.00 57 1011.9
20180920192248 69 310 8.0 11.0 0.00 0.00 0.00 57 1011.9
20180920192148 69 311 4.0 11.0 0.00 0.00 0.00 57 1011.9
20180920192048 69 305 7.0 11.0 0.00 0.00 0.00 57 1011.9
20180920191948 69 306 7.0 11.0 0.00 0.00 0.00 57 1011.9
20180920191848 69 299 4.0 10.0 0.00 0.00 0.00 57 1011.9
20180920191748 69 296 6.0 10.0 0.00 0.00 0.00 57 1011.9
20180920191648 69 302 4.0 9.0 0.00 0.00 0.00 57 1011.9
20180920191548 69 301 6.0 9.0 0.00 0.00 0.00 57 1011.9
20180920191448 69 297 4.0 8.0 0.00 0.00 0.00 57 1011.9
20180920191348 69 301 6.0 8.0 0.00 0.00 0.00 57 1011.9
20180920191248 70 302 5.0 8.0 0.00 0.00 0.00 57 1011.9
20180920191148 69 298 4.0 8.0 0.00 0.00 0.00 57 1011.9
20180920191050 69 302 4.0 8.0 0.00 0.00 0.00 57 1011.9
20180920190948 69 302 4.0 8.0 0.00 0.00 0.00 57 1011.9
20180920190848 69 310 4.0 8.0 0.00 0.00 0.00 57 1011.9
20180920190748 70 310 4.0 9.0 0.00 0.00 0.00 57 1011.9
20180920190648 70 309 4.0 9.0 0.00 0.00 0.00 56 1011.9
20180920190548 70 306 4.0 9.0 0.00 0.00 0.00 56 1011.9
20180920190448 70 305 5.0 9.0 0.00 0.00 0.00 56 1011.9
20180920190348 70 309 6.0 9.0 0.00 0.00 0.00 56 1011.9
20180920190248 70 313 5.0 9.0 0.00 0.00 0.00 56 1011.9
20180920190148 70 315 3.0 9.0 0.00 0.00 0.00 56 1011.9
20180920190048 70 311 4.0 9.0 0.00 0.00 0.00 56 1011.9
20180920185948 70 309 5.0 9.0 0.00 0.00 0.00 56 1011.9
20180920185847 70 302 6.0 9.0 0.00 0.00 0.00 56 1011.9
20180920185747 70 306 4.0 8.0 0.00 0.00 0.00 56 1011.9
20180920185648 70 308 6.0 8.0 0.00 0.00 0.00 56 1011.9
20180920185548 70 309 6.0 8.0 0.00 0.00 0.00 56 1011.9
20180920185448 70 311 7.0 12.0 0.00 0.00 0.00 56 1011.9
20180920185348 70 310 4.0 12.0 0.00 0.00 0.00 56 1011.9
20180920185247 70 309 6.0 12.0 0.00 0.00 0.00 56 1011.9
20180920185148 70 308 7.0 12.0 0.00 0.00 0.00 56 1011.9
20180920185048 70 308 7.0 12.0 0.00 0.00 0.00 56 1011.9
20180920184948 70 311 7.0 12.0 0.00 0.00 0.00 56 1011.9
20180920184848 70 313 4.0 12.0 0.00 0.00 0.00 56 1011.9
20180920184748 70 316 8.0 12.0 0.00 0.00 0.00 56 1011.9
20180920184648 70 312 9.0 12.0 0.00 0.00 0.00 56 1011.9
20180920184548 70 312 7.0 12.0 0.00 0.00 0.00 55 1011.9
20180920184448 70 312 6.0 11.0 0.00 0.00 0.00 56 1011.9
20180920184348 70 312 7.0 11.0 0.00 0.00 0.00 55 1011.9
20180920184248 70 310 7.0 11.0 0.00 0.00 0.00 55 1011.9
20180920184149 70 309 7.0 11.0 0.00 0.00 0.00 55 1011.9
20180920184047 70 311 6.0 11.0 0.00 0.00 0.00 56 1011.9
20180920183948 70 307 6.0 11.0 0.00 0.00 0.00 56 1011.9
20180920183848 70 307 4.0 11.0 0.00 0.00 0.00 55 1011.9
20180920183748 70 303 6.0 11.0 0.00 0.00 0.00 55 1011.9
20180920183649 70 306 4.0 11.0 0.00 0.00 0.00 55 1011.9
20180920183548 70 306 6.0 12.0 0.00 0.00 0.00 55 1011.9
20180920183448 70 306 4.0 12.0 0.00 0.00 0.00 55 1011.9
20180920183348 70 305 4.0 12.0 0.00 0.00 0.00 55 1011.9
20180920183248 70 303 6.0 12.0 0.00 0.00 0.00 55 1011.9
20180920183148 70 306 6.0 12.0 0.00 0.00 0.00 55 1011.9
20180920183048 70 308 5.0 12.0 0.00 0.00 0.00 55 1012.9
20180920182948 70 308 4.0 12.0 0.00 0.00 0.00 55 1012.9
20180920182848 70 308 7.0 12.0 0.00 0.00 0.00 55 1012.9
20180920182748 70 309 5.0 12.0 0.00 0.00 0.00 55 1012.9
20180920182648 70 307 6.0 12.0 0.00 0.00 0.00 55 1012.9
20180920182548 70 305 5.0 10.0 0.00 0.00 0.00 55 1012.9
20180920182448 70 304 6.0 10.0 0.00 0.00 0.00 55 1012.9
20180920182347 70 303 7.0 10.0 0.00 0.00 0.00 55 1012.9
20180920182248 70 305 4.0 10.0 0.00 0.00 0.00 55 1012.9
20180920182148 70 303 7.0 11.0 0.00 0.00 0.00 55 1012.9
20180920182048 70 302 4.0 11.0 0.00 0.00 0.00 55 1012.9
20180920181948 70 304 6.0 11.0 0.00 0.00 0.00 55 1012.9
20180920181848 70 300 5.0 11.0 0.00 0.00 0.00 55 1012.9
20180920181747 70 301 7.0 11.0 0.00 0.00 0.00 55 1012.9
20180920181648 70 303 4.0 11.0 0.00 0.00 0.00 55 1012.9
20180920181548 70 305 4.0 11.0 0.00 0.00 0.00 55 1011.9
20180920181448 70 304 6.0 11.0 0.00 0.00 0.00 55 1011.9
20180920181348 70 305 5.0 11.0 0.00 0.00 0.00 55 1011.9
20180920181248 70 303 4.0 11.0 0.00 0.00 0.00 55 1011.9
20180920181147 70 306 4.0 10.0 0.00 0.00 0.00 55 1011.9
20180920181048 70 306 6.0 10.0 0.00 0.00 0.00 55 1011.9
20180920180948 70 304 6.0 10.0 0.00 0.00 0.00 55 1011.9
20180920180848 70 307 4.0 10.0 0.00 0.00 0.00 55 1011.9
20180920180748 70 306 6.0 10.0 0.00 0.00 0.00 55 1011.9
20180920180648 70 305 5.0 10.0 0.00 0.00 0.00 55 1011.9
20180920180547 70 303 5.0 9.0 0.00 0.00 0.00 55 1011.9
20180920180448 70 302 4.0 9.0 0.00 0.00 0.00 55 1011.9
20180920180348 70 302 4.0 9.0 0.00 0.00 0.00 55 1011.9
20180920180249 70 303 5.0 9.0 0.00 0.00 0.00 55 1011.9
20180920180148 70 306 5.0 9.0 0.00 0.00 0.00 55 1011.9
20180920180050 70 304 7.0 9.0 0.00 0.00 0.00 55 1012.9
20180920175948 70 309 5.0 9.0 0.00 0.00 0.00 55 1012.9
20180920175848 70 309 4.0 8.0 0.00 0.00 0.00 55 1012.9
20180920175748 70 309 4.0 8.0 0.00 0.00 0.00 55 1012.9
20180920175648 70 311 4.0 8.0 0.00 0.00 0.00 55 1012.9
20180920175548 70 312 3.0 9.0 0.00 0.00 0.00 55 1012.9
20180920175448 70 312 4.0 9.0 0.00 0.00 0.00 55 1012.9
20180920175348 70 311 4.0 9.0 0.00 0.00 0.00 55 1012.9
20180920175248 70 309 4.0 9.0 0.00 0.00 0.00 54 1012.9
20180920175148 70 303 5.0 9.0 0.00 0.00 0.00 54 1012.9
20180920175048 70 305 4.0 9.0 0.00 0.00 0.00 54 1012.9
20180920174948 70 301 5.0 9.0 0.00 0.00 0.00 54 1012.9
20180920174847 70 298 3.0 9.0 0.00 0.00 0.00 54 1012.9
20180920174747 70 299 5.0 9.0 0.00 0.00 0.00 54 1012.9
20180920174648 70 300 2.0 9.0 0.00 0.00 0.00 54 1012.9
20180920174548 70 299 3.0 9.0 0.00 0.00 0.00 54 1011.9
20180920174450 70 301 3.0 9.0 0.00 0.00 0.00 54 1011.9
20180920174349 70 306 5.0 12.0 0.00 0.00 0.00 54 1011.9
20180920174249 70 308 3.0 12.0 0.00 0.00 0.00 54 1011.9
20180920174148 70 308 2.0 12.0 0.00 0.00 0.00 54 1011.9
20180920174049 70 308 4.0 12.0 0.00 0.00 0.00 54 1011.9
20180920173948 70 310 5.0 12.0 0.00 0.00 0.00 54 1011.9
20180920173848 70 309 4.0 12.0 0.00 0.00 0.00 54 1011.9
20180920173748 70 309 4.0 12.0 0.00 0.00 0.00 54 1011.9
20180920173647 70 309 4.0 12.0 0.00 0.00 0.00 54 1011.9
20180920173548 70 311 7.0 12.0 0.00 0.00 0.00 54 1011.9
20180920173448 71 311 3.0 12.0 0.00 0.00 0.00 54 1011.9
20180920173348 71 311 4.0 11.0 0.00 0.00 0.00 54 1011.9
20180920173248 71 311 8.0 11.0 0.00 0.00 0.00 54 1011.9
20180920173148 71 314 4.0 11.0 0.00 0.00 0.00 54 1011.9
20180920173047 70 316 4.0 9.0 0.00 0.00 0.00 54 1012.9
20180920172948 71 316 6.0 9.0 0.00 0.00 0.00 54 1012.9
20180920172848 71 318 5.0 9.0 0.00 0.00 0.00 54 1012.9
20180920172748 71 319 4.0 9.0 0.00 0.00 0.00 54 1012.9
20180920172648 71 322 6.0 9.0 0.00 0.00 0.00 54 1012.9
20180920172548 71 320 4.0 9.0 0.00 0.00 0.00 54 1012.9
20180920172448 71 316 3.0 7.0 0.00 0.00 0.00 54 1012.9
20180920172348 71 316 6.0 9.0 0.00 0.00 0.00 53 1012.9
20180920172248 71 317 5.0 9.0 0.00 0.00 0.00 53 1012.9
20180920172148 71 313 4.0 9.0 0.00 0.00 0.00 53 1012.9
20180920172048 71 313 4.0 9.0 0.00 0.00 0.00 53 1012.9
20180920171947 71 311 4.0 9.0 0.00 0.00 0.00 53 1012.9
20180920171847 71 311 5.0 9.0 0.00 0.00 0.00 53 1012.9
20180920171748 71 305 4.0 10.0 0.00 0.00 0.00 53 1012.9
20180920171648 71 308 3.0 10.0 0.00 0.00 0.00 53 1012.9
20180920171549 71 309 3.0 10.0 0.00 0.00 0.00 53 1012.9
20180920171448 71 310 4.0 10.0 0.00 0.00 0.00 53 1012.9
20180920171347 71 311 4.0 10.0 0.00 0.00 0.00 53 1012.9
20180920171247 71 307 5.0 10.0 0.00 0.00 0.00 53 1012.9
20180920171148 71 308 2.0 10.0 0.00 0.00 0.00 53 1012.9
20180920171048 71 309 5.0 10.0 0.00 0.00 0.00 54 1012.9
20180920170948 71 309 6.0 10.0 0.00 0.00 0.00 53 1012.9
20180920170848 71 307 5.0 10.0 0.00 0.00 0.00 54 1012.9
20180920170747 71 310 6.0 10.0 0.00 0.00 0.00 54 1012.9
20180920170648 71 308 4.0 8.0 0.00 0.00 0.00 54 1012.9
20180920170548 71 308 4.0 8.0 0.00 0.00 0.00 54 1012.9
20180920170448 71 307 4.0 8.0 0.00 0.00 0.00 54 1012.9
20180920170348 71 307 4.0 8.0 0.00 0.00 0.00 54 1012.9
20180920170248 71 305 6.0 9.0 0.00 0.00 0.00 54 1012.9
20180920170147 71 300 4.0 9.0 0.00 0.00 0.00 54 1012.9
20180920170048 71 298 5.0 9.0 0.00 0.00 0.00 54 1012.9
20180920165948 71 294 2.0 9.0 0.00 0.00 0.00 54 1012.9
20180920165848 71 295 5.0 9.0 0.00 0.00 0.00 54 1012.9
20180920165748 71 294 6.0 9.0 0.00 0.00 0.00 54 1012.9
20180920165648 71 295 4.0 9.0 0.00 0.00 0.00 54 1012.9
20180920165547 71 292 3.0 9.0 0.00 0.00 0.00 54 1012.9
20180920165448 71 293 6.0 9.0 0.00 0.00 0.00 54 1012.9
20180920165348 71 295 4.0 10.0 0.00 0.00 0.00 54 1012.9
20180920165248 71 300 3.0 10.0 0.00 0.00 0.00 54 1012.9
20180920165152 71 303 3.0 10.0 0.00 0.00 0.00 54 1012.9
20180920165049 71 302 6.0 10.0 0.00 0.00 0.00 54 1012.9
20180920164947 71 305 6.0 10.0 0.00 0.00 0.00 54 1012.9
20180920164850 71 309 4.0 10.0 0.00 0.00 0.00 54 1012.9
20180920164748 71 309 5.0 10.0 0.00 0.00 0.00 54 1012.9
20180920164648 71 310 4.0 10.0 0.00 0.00 0.00 54 1012.9
20180920164549 71 312 6.0 10.0 0.00 0.00 0.00 54 1011.9
20180920164448 71 315 5.0 11.0 0.00 0.00 0.00 55 1011.9
20180920164347 71 313 4.0 11.0 0.00 0.00 0.00 55 1011.9
20180920164248 71 312 8.0 11.0 0.00 0.00 0.00 55 1011.9
20180920164148 71 312 4.0 11.0 0.00 0.00 0.00 55 1011.9
20180920164048 71 316 3.0 11.0 0.00 0.00 0.00 55 1011.9
20180920163948 71 315 5.0 11.0 0.00 0.00 0.00 55 1011.9
20180920163847 71 313 4.0 11.0 0.00 0.00 0.00 55 1011.9
20180920163747 71 316 6.0 11.0 0.00 0.00 0.00 55 1011.9
20180920163648 71 319 4.0 11.0 0.00 0.00 0.00 55 1011.9
20180920163548 70 323 6.0 11.0 0.00 0.00 0.00 55 1011.9
20180920163448 70 318 3.0 6.0 0.00 0.00 0.00 55 1011.9
20180920163348 70 317 1.0 6.0 0.00 0.00 0.00 55 1011.9
20180920163247 70 321 5.0 6.0 0.00 0.00 0.00 55 1011.9
20180920163147 70 320 5.0 6.0 0.00 0.00 0.00 55 1011.9
20180920163048 70 319 3.0 6.0 0.00 0.00 0.00 55 1011.9
20180920162948 70 317 2.0 6.0 0.00 0.00 0.00 55 1011.9
20180920162848 70 319 2.0 6.0 0.00 0.00 0.00 55 1011.9
20180920162749 70 315 3.0 6.0 0.00 0.00 0.00 55 1011.9
20180920162647 70 305 3.0 6.0 0.00 0.00 0.00 55 1011.9
20180920162548 70 301 2.0 8.0 0.00 0.00 0.00 55 1011.9
20180920162448 70 301 4.0 8.0 0.00 0.00 0.00 55 1011.9
20180920162349 70 302 3.0 8.0 0.00 0.00 0.00 55 1011.9
20180920162248 70 303 3.0 8.0 0.00 0.00 0.00 55 1011.9
20180920162148 70 302 3.0 8.0 0.00 0.00 0.00 55 1011.9
20180920162047 70 299 4.0 8.0 0.00 0.00 0.00 55 1011.9
20180920161948 70 309 4.0 8.0 0.00 0.00 0.00 55 1011.9
20180920161848 70 307 4.0 8.0 0.00 0.00 0.00 55 1011.9
20180920161748 70 308 4.0 8.0 0.00 0.00 0.00 55 1011.9
20180920161648 70 310 4.0 8.0 0.00 0.00 0.00 55 1011.9
20180920161548 70 313 4.0 8.0 0.00 0.00 0.00 55 1011.9
20180920161448 70 312 2.0 8.0 0.00 0.00 0.00 55 1011.9
20180920161348 70 309 4.0 8.0 0.00 0.00 0.00 55 1011.9
20180920161248 70 306 4.0 10.0 0.00 0.00 0.00 55 1011.9
20180920161148 70 307 3.0 10.0 0.00 0.00 0.00 55 1011.9
20180920161048 70 306 5.0 10.0 0.00 0.00 0.00 55 1011.9
20180920160949 70 301 4.0 10.0 0.00 0.00 0.00 55 1011.9
20180920160847 70 304 3.0 10.0 0.00 0.00 0.00 55 1011.9
20180920160749 70 304 5.0 10.0 0.00 0.00 0.00 55 1011.9
20180920160648 70 302 3.0 10.0 0.00 0.00 0.00 55 1011.9
20180920160548 70 299 4.0 10.0 0.00 0.00 0.00 55 1011.9
20180920160448 70 299 4.0 10.0 0.00 0.00 0.00 55 1011.9
20180920160347 70 299 4.0 10.0 0.00 0.00 0.00 55 1011.9
20180920160247 70 292 3.0 8.0 0.00 0.00 0.00 55 1011.9
20180920160148 70 293 3.0 8.0 0.00 0.00 0.00 55 1011.9
20180920160048 70 294 4.0 8.0 0.00 0.00 0.00 54 1012.9
20180920155948 70 297 4.0 8.0 0.00 0.00 0.00 55 1012.9
20180920155848 70 294 3.0 8.0 0.00 0.00 0.00 55 1012.9
20180920155747 70 296 4.0 8.0 0.00 0.00 0.00 55 1012.9
20180920155647 70 298 4.0 8.0 0.00 0.00 0.00 54 1012.9
20180920155548 70 300 4.0 8.0 0.00 0.00 0.00 54 1012.9
20180920155448 70 300 4.0 8.0 0.00 0.00 0.00 54 1012.9
20180920155348 70 303 4.0 8.0 0.00 0.00 0.00 54 1012.9
20180920155248 70 306 4.0 6.0 0.00 0.00 0.00 54 1012.9
20180920155147 70 304 4.0 6.0 0.00 0.00 0.00 54 1012.9
20180920155049 70 306 4.0 6.0 0.00 0.00 0.00 54 1012.9
20180920154949 70 307 3.0 6.0 0.00 0.00 0.00 54 1012.9
20180920154848 70 304 4.0 6.0 0.00 0.00 0.00 54 1012.9
20180920154748 70 303 3.0 8.0 0.00 0.00 0.00 54 1012.9
20180920154648 70 306 3.0 8.0 0.00 0.00 0.00 54 1012.9
20180920154547 70 307 1.0 8.0 0.00 0.00 0.00 54 1012.9
20180920154447 70 307 4.0 8.0 0.00 0.00 0.00 54 1012.9
20180920154348 70 306 3.0 8.0 0.00 0.00 0.00 54 1012.9
20180920154248 70 306 3.0 8.0 0.00 0.00 0.00 54 1012.9
20180920154148 70 305 2.0 8.0 0.00 0.00 0.00 53 1012.9
20180920154048 70 306 2.0 8.0 0.00 0.00 0.00 53 1012.9
20180920153947 71 308 5.0 8.0 0.00 0.00 0.00 53 1012.9
20180920153848 71 309 6.0 8.0 0.00 0.00 0.00 53 1012.9
20180920153748 71 308 3.0 6.0 0.00 0.00 0.00 53 1012.9
20180920153648 71 307 3.0 6.0 0.00 0.00 0.00 53 1012.9
20180920153549 71 300 2.0 6.0 0.00 0.00 0.00 53 1012.9
20180920153449 71 296 4.0 7.0 0.00 0.00 0.00 53 1012.9
20180920153347 71 296 4.0 7.0 0.00 0.00 0.00 52 1012.9
20180920153250 71 296 4.0 7.0 0.00 0.00 0.00 52 1012.9
20180920153148 71 299 3.0 7.0 0.00 0.00 0.00 52 1012.9
20180920153049 71 301 4.0 7.0 0.00 0.00 0.00 52 1011.9
20180920152948 71 296 4.0 7.0 0.00 0.00 0.00 51 1011.9
20180920152848 71 299 4.0 7.0 0.00 0.00 0.00 51 1011.9
20180920152748 71 299 4.0 7.0 0.00 0.00 0.00 51 1011.9
20180920152648 71 302 5.0 7.0 0.00 0.00 0.00 51 1011.9
20180920152548 71 302 5.0 7.0 0.00 0.00 0.00 51 1011.9
20180920152448 71 308 3.0 7.0 0.00 0.00 0.00 51 1011.9
20180920152348 71 308 3.0 6.0 0.00 0.00 0.00 51 1011.9
20180920152247 71 305 3.0 6.0 0.00 0.00 0.00 51 1011.9
20180920152148 71 301 4.0 6.0 0.00 0.00 0.00 50 1011.9
20180920152048 71 295 3.0 6.0 0.00 0.00 0.00 50 1011.9
20180920151948 71 297 4.0 6.0 0.00 0.00 0.00 50 1011.9
20180920151848 71 297 3.0 6.0 0.00 0.00 0.00 50 1011.9
20180920151748 71 297 3.0 6.0 0.00 0.00 0.00 50 1011.9
20180920151647 71 297 4.0 6.0 0.00 0.00 0.00 50 1011.9
20180920151547 71 296 4.0 6.0 0.00 0.00 0.00 49 1011.9
20180920151448 71 296 4.0 8.0 0.00 0.00 0.00 49 1011.9
20180920151348 71 295 5.0 8.0 0.00 0.00 0.00 49 1011.9
20180920151248 71 295 4.0 8.0 0.00 0.00 0.00 49 1011.9
20180920151148 71 298 3.0 8.0 0.00 0.00 0.00 49 1011.9
20180920151047 71 301 3.0 8.0 0.00 0.00 0.00 49 1011.9
20180920150748 72 301 3.0 8.0 0.00 0.00 0.00 48 1011.9
20180920150648 72 297 6.0 8.0 0.00 0.00 0.00 48 1011.9
20180920150548 72 298 3.0 8.0 0.00 0.00 0.00 48 1011.9
20180920150447 72 301 4.0 6.0 0.00 0.00 0.00 48 1011.9
20180920150347 72 307 3.0 7.0 0.00 0.00 0.00 48 1011.9
20180920150248 72 307 3.0 7.0 0.00 0.00 0.00 48 1011.9
20180920150148 72 306 3.0 7.0 0.00 0.00 0.00 47 1011.9
20180920150048 72 307 2.0 7.0 0.00 0.00 0.00 47 1011.9
20180920145948 72 302 3.0 7.0 0.00 0.00 0.00 47 1011.9
20180920145847 72 303 3.0 7.0 0.00 0.00 0.00 47 1011.9
20180920145748 72 304 2.0 9.0 0.00 0.00 0.00 47 1011.9
20180920145648 72 306 2.0 9.0 0.00 0.00 0.00 47 1011.9
20180920145548 72 306 3.0 9.0 0.00 0.00 0.00 47 1011.9
20180920145448 72 306 4.0 9.0 0.00 0.00 0.00 46 1011.9
20180920145348 72 301 4.0 9.0 0.00 0.00 0.00 46 1011.9
20180920145248 72 299 4.0 9.0 0.00 0.00 0.00 46 1011.9
20180920145148 72 301 4.0 9.0 0.00 0.00 0.00 46 1011.9
20180920145048 72 300 5.0 9.0 0.00 0.00 0.00 45 1011.9
20180920144948 72 305 6.0 9.0 0.00 0.00 0.00 46 1011.9
20180920144848 72 307 3.0 9.0 0.00 0.00 0.00 45 1011.9
20180920144748 72 304 3.0 8.0 0.00 0.00 0.00 45 1011.9
20180920144648 72 303 3.0 8.0 0.00 0.00 0.00 45 1011.9
20180920144548 73 307 4.0 8.0 0.00 0.00 0.00 45 1011.9
20180920144448 73 304 4.0 8.0 0.00 0.00 0.00 45 1011.9
20180920144348 73 307 4.0 7.0 0.00 0.00 0.00 45 1011.9
20180920144248 73 304 5.0 7.0 0.00 0.00 0.00 45 1011.9
20180920144148 73 305 3.0 7.0 0.00 0.00 0.00 45 1011.9
20180920144047 73 301 3.0 6.0 0.00 0.00 0.00 45 1011.9
20180920143948 73 296 4.0 6.0 0.00 0.00 0.00 44 1011.9
20180920143848 73 293 4.0 6.0 0.00 0.00 0.00 44 1011.9
20180920143748 73 290 3.0 6.0 0.00 0.00 0.00 44 1011.9
20180920143648 73 291 2.0 6.0 0.00 0.00 0.00 44 1011.9
20180920143547 73 290 4.0 6.0 0.00 0.00 0.00 44 1011.9
20180920143447 73 287 4.0 6.0 0.00 0.00 0.00 44 1011.9
20180920143348 73 286 3.0 6.0 0.00 0.00 0.00 44 1011.9
20180920143248 73 288 2.0 6.0 0.00 0.00 0.00 44 1011.9
20180920143148 73 284 2.0 8.0 0.00 0.00 0.00 44 1011.9
20180920143048 73 288 3.0 8.0 0.00 0.00 0.00 44 1011.9
20180920142947 73 287 4.0 8.0 0.00 0.00 0.00 44 1011.9
20180920142847 74 285 5.0 8.0 0.00 0.00 0.00 43 1011.9
20180920142748 74 287 4.0 8.0 0.00 0.00 0.00 43 1011.9
20180920142648 74 286 3.0 8.0 0.00 0.00 0.00 43 1011.9
20180920142548 74 286 4.0 8.0 0.00 0.00 0.00 43 1011.9
20180920142448 74 285 3.0 8.0 0.00 0.00 0.00 43 1011.9
20180920142347 74 289 4.0 10.0 0.00 0.00 0.00 43 1011.9
20180920142247 74 288 5.0 10.0 0.00 0.00 0.00 43 1011.9
20180920142148 74 289 4.0 10.0 0.00 0.00 0.00 43 1011.9
20180920142048 74 291 3.0 10.0 0.00 0.00 0.00 43 1011.9
20180920141948 74 296 2.0 10.0 0.00 0.00 0.00 43 1011.9
20180920141849 74 297 2.0 10.0 0.00 0.00 0.00 43 1011.9
20180920141748 74 298 3.0 10.0 0.00 0.00 0.00 43 1011.9
20180920141647 74 300 4.0 10.0 0.00 0.00 0.00 42 1011.9
20180920141548 74 300 4.0 10.0 0.00 0.00 0.00 42 1011.9
20180920141448 74 305 6.0 10.0 0.00 0.00 0.00 42 1011.9
20180920141348 74 303 3.0 10.0 0.00 0.00 0.00 42 1011.9
20180920141248 74 304 3.0 10.0 0.00 0.00 0.00 42 1011.9
20180920141147 74 306 5.0 10.0 0.00 0.00 0.00 42 1011.9
20180920141048 74 306 6.0 10.0 0.00 0.00 0.00 42 1011.9
20180920140948 74 303 5.0 9.0 0.00 0.00 0.00 42 1011.9
20180920140848 74 302 4.0 9.0 0.00 0.00 0.00 42 1011.9
20180920140748 74 302 4.0 9.0 0.00 0.00 0.00 42 1011.9
20180920140648 74 303 1.0 7.0 0.00 0.00 0.00 42 1011.9
20180920140547 74 302 4.0 7.0 0.00 0.00 0.00 42 1011.9
20180920140447 75 298 6.0 7.0 0.00 0.00 0.00 42 1011.9
20180920140348 75 298 4.0 8.0 0.00 0.00 0.00 42 1011.9
20180920140248 75 296 3.0 8.0 0.00 0.00 0.00 42 1011.9
20180920140148 75 294 3.0 8.0 0.00 0.00 0.00 42 1011.9
20180920140047 75 294 5.0 8.0 0.00 0.00 0.00 42 1011.9
20180920135948 75 289 6.0 8.0 0.00 0.00 0.00 42 1011.9
20180920135848 75 292 7.0 8.0 0.00 0.00 0.00 41 1011.9
20180920135748 75 294 4.0 8.0 0.00 0.00 0.00 41 1011.9
20180920135648 75 291 3.0 8.0 0.00 0.00 0.00 41 1011.9
20180920135548 75 286 5.0 8.0 0.00 0.00 0.00 41 1011.9
20180920135447 75 290 5.0 10.0 0.00 0.00 0.00 41 1011.9
20180920135348 75 290 5.0 10.0 0.00 0.00 0.00 41 1011.9
20180920135248 75 295 4.0 10.0 0.00 0.00 0.00 41 1011.9
20180920135148 75 295 4.0 10.0 0.00 0.00 0.00 41 1011.9
20180920135048 75 293 4.0 10.0 0.00 0.00 0.00 41 1011.9
20180920134948 75 292 6.0 10.0 0.00 0.00 0.00 41 1011.9
20180920134847 75 294 6.0 10.0 0.00 0.00 0.00 41 1011.9
20180920134748 75 294 4.0 10.0 0.00 0.00 0.00 41 1011.9
20180920134648 75 297 4.0 10.0 0.00 0.00 0.00 41 1011.9
20180920134548 75 295 7.0 10.0 0.00 0.00 0.00 41 1011.9
20180920134448 75 301 6.0 10.0 0.00 0.00 0.00 41 1011.9
20180920134348 75 299 3.0 8.0 0.00 0.00 0.00 41 1011.9
20180920134247 75 297 4.0 8.0 0.00 0.00 0.00 41 1011.9
20180920134148 75 292 4.0 9.0 0.00 0.00 0.00 41 1011.9
20180920134048 75 294 6.0 9.0 0.00 0.00 0.00 41 1011.9
20180920133948 75 299 6.0 9.0 0.00 0.00 0.00 41 1011.9
20180920133848 75 296 4.0 12.0 0.00 0.00 0.00 40 1011.9
20180920133748 76 292 4.0 12.0 0.00 0.00 0.00 41 1011.9
20180920133648 76 291 5.0 12.0 0.00 0.00 0.00 40 1011.9
20180920133547 76 296 2.0 12.0 0.00 0.00 0.00 40 1011.9
20180920133448 76 291 4.0 12.0 0.00 0.00 0.00 40 1011.9
20180920133348 75 291 7.0 12.0 0.00 0.00 0.00 40 1011.9
20180920133248 76 292 5.0 12.0 0.00 0.00 0.00 40 1011.9
20180920133148 76 290 5.0 12.0 0.00 0.00 0.00 40 1011.9
20180920133047 76 293 4.0 12.0 0.00 0.00 0.00 40 1011.9
20180920132947 76 293 6.0 12.0 0.00 0.00 0.00 40 1011.9
20180920132848 76 296 4.0 12.0 0.00 0.00 0.00 40 1011.9
20180920132748 76 299 4.0 10.0 0.00 0.00 0.00 40 1011.9
20180920132648 76 297 4.0 10.0 0.00 0.00 0.00 40 1011.9
20180920132548 76 297 6.0 10.0 0.00 0.00 0.00 40 1011.9
20180920132448 76 293 8.0 10.0 0.00 0.00 0.00 40 1011.9
20180920132348 76 296 7.0 10.0 0.00 0.00 0.00 40 1011.9
20180920132248 76 298 5.0 10.0 0.00 0.00 0.00 40 1011.9
20180920132148 76 297 7.0 11.0 0.00 0.00 0.00 40 1011.9
20180920132048 76 299 4.0 11.0 0.00 0.00 0.00 40 1011.9
20180920131947 76 298 7.0 11.0 0.00 0.00 0.00 39 1011.9
20180920131847 76 296 6.0 11.0 0.00 0.00 0.00 39 1011.9
20180920131748 76 294 5.0 11.0 0.00 0.00 0.00 39 1011.9
20180920131648 76 294 3.0 11.0 0.00 0.00 0.00 39 1011.9
20180920131548 76 296 4.0 11.0 0.00 0.00 0.00 39 1011.9
20180920131448 76 297 5.0 11.0 0.00 0.00 0.00 39 1011.9
20180920131347 76 288 8.0 12.0 0.00 0.00 0.00 39 1011.9
20180920131247 76 290 6.0 12.0 0.00 0.00 0.00 39 1011.9
20180920131148 76 296 6.0 12.0 0.00 0.00 0.00 39 1011.9
20180920131048 76 296 7.0 12.0 0.00 0.00 0.00 38 1011.9
20180920130948 76 292 6.0 12.0 0.00 0.00 0.00 38 1011.9
20180920130848 76 288 6.0 12.0 0.00 0.00 0.00 38 1011.9
20180920130747 76 288 6.0 12.0 0.00 0.00 0.00 38 1011.9
20180920130648 76 289 5.0 12.0 0.00 0.00 0.00 38 1011.9
20180920130548 76 285 9.0 12.0 0.00 0.00 0.00 38 1011.9
20180920130448 76 286 7.0 12.0 0.00 0.00 0.00 38 1011.9
20180920130348 77 292 7.0 11.0 0.00 0.00 0.00 38 1011.9
20180920130248 77 290 9.0 10.0 0.00 0.00 0.00 38 1011.9
20180920130147 77 287 5.0 10.0 0.00 0.00 0.00 38 1011.9
20180920130048 77 289 4.0 12.0 0.00 0.00 0.00 38 1011.9
20180920125947 77 289 5.0 12.0 0.00 0.00 0.00 38 1011.9
20180920125848 77 291 4.0 12.0 0.00 0.00 0.00 38 1011.9
20180920125748 77 286 10.0 12.0 0.00 0.00 0.00 38 1011.9
20180920125648 77 286 6.0 12.0 0.00 0.00 0.00 38 1011.9
20180920125547 77 292 11.0 12.0 0.00 0.00 0.00 38 1011.9
20180920125448 77 289 3.0 12.0 0.00 0.00 0.00 38 1011.9
20180920125348 77 284 4.0 12.0 0.00 0.00 0.00 38 1011.9
20180920125250 77 281 8.0 18.0 0.00 0.00 0.00 38 1011.9
20180920125148 77 280 10.0 18.0 0.00 0.00 0.00 38 1011.9
20180920125048 77 280 9.0 18.0 0.00 0.00 0.00 38 1011.9
20180920124947 77 280 5.0 18.0 0.00 0.00 0.00 38 1011.9
20180920124848 77 283 7.0 18.0 0.00 0.00 0.00 38 1011.9
20180920124748 77 286 8.0 18.0 0.00 0.00 0.00 38 1011.9
20180920124648 77 285 10.0 18.0 0.00 0.00 0.00 38 1011.9
20180920124549 77 281 6.0 18.0 0.00 0.00 0.00 38 1011.9
20180920124448 77 287 6.0 18.0 0.00 0.00 0.00 38 1011.9
20180920124348 77 289 8.0 18.0 0.00 0.00 0.00 38 1011.9
20180920124248 77 290 7.0 18.0 0.00 0.00 0.00 38 1011.9
20180920124148 77 293 10.0 13.0 0.00 0.00 0.00 38 1011.9
20180920124050 77 292 4.0 13.0 0.00 0.00 0.00 38 1011.9
20180920123948 77 298 4.0 13.0 0.00 0.00 0.00 39 1011.9
20180920123847 77 300 3.0 13.0 0.00 0.00 0.00 39 1011.9
20180920123747 77 299 4.0 13.0 0.00 0.00 0.00 38 1011.9
20180920123648 77 295 3.0 13.0 0.00 0.00 0.00 38 1011.9
20180920123549 77 300 4.0 13.0 0.00 0.00 0.00 38 1011.9
20180920123448 77 297 9.0 13.0 0.00 0.00 0.00 38 1011.9
20180920123348 77 299 3.0 13.0 0.00 0.00 0.00 38 1011.9
20180920123247 77 311 4.0 7.0 0.00 0.00 0.00 39 1011.9
20180920123147 77 315 3.0 11.0 0.00 0.00 0.00 38 1011.9
20180920123048 77 318 4.0 11.0 0.00 0.00 0.00 38 1011.9
20180920122950 77 309 4.0 11.0 0.00 0.00 0.00 38 1011.9
20180920122848 77 305 4.0 11.0 0.00 0.00 0.00 38 1011.9
20180920122748 77 309 4.0 11.0 0.00 0.00 0.00 38 1011.9
20180920122647 77 318 1.0 11.0 0.00 0.00 0.00 38 1011.9
20180920122547 77 319 5.0 11.0 0.00 0.00 0.00 38 1011.9
20180920122448 77 314 4.0 11.0 0.00 0.00 0.00 37 1011.9
20180920122348 77 312 7.0 11.0 0.00 0.00 0.00 37 1011.9
20180920122248 77 313 10.0 11.0 0.00 0.00 0.00 37 1011.9
20180920122148 77 310 6.0 11.0 0.00 0.00 0.00 37 1011.9
20180920122047 77 315 6.0 11.0 0.00 0.00 0.00 37 1011.9
20180920121947 77 312 8.0 12.0 0.00 0.00 0.00 37 1011.9
20180920121848 77 315 7.0 13.0 0.00 0.00 0.00 37 1011.9
20180920121748 77 315 7.0 13.0 0.00 0.00 0.00 37 1011.9
20180920121648 77 314 6.0 13.0 0.00 0.00 0.00 37 1011.9
20180920121548 77 315 6.0 13.0 0.00 0.00 0.00 37 1011.9
20180920121447 77 317 8.0 13.0 0.00 0.00 0.00 36 1011.9
20180920121347 77 317 9.0 13.0 0.00 0.00 0.00 36 1011.9
20180920121248 77 317 7.0 13.0 0.00 0.00 0.00 36 1011.9
20180920121148 77 316 8.0 13.0 0.00 0.00 0.00 36 1011.9
20180920121048 77 312 8.0 13.0 0.00 0.00 0.00 36 1011.9
20180920120947 77 316 8.0 13.0 0.00 0.00 0.00 36 1011.9
20180920120847 77 314 10.0 13.0 0.00 0.00 0.00 36 1011.9
20180920120748 77 313 9.0 13.0 0.00 0.00 0.00 36 1011.9
20180920120648 77 312 9.0 13.0 0.00 0.00 0.00 37 1011.9
20180920120548 77 317 8.0 14.0 0.00 0.00 0.00 37 1011.9
20180920120448 77 311 7.0 14.0 0.00 0.00 0.00 37 1011.9
20180920120347 77 313 9.0 14.0 0.00 0.00 0.00 37 1011.9
20180920120247 77 314 4.0 14.0 0.00 0.00 0.00 37 1011.9
20180920120148 77 323 5.0 14.0 0.00 0.00 0.00 37 1011.9
20180920120048 77 326 6.0 14.0 0.00 0.00 0.00 37 1011.9
20180920115948 77 324 4.0 14.0 0.00 0.00 0.00 38 1011.9
20180920115848 77 325 4.0 14.0 0.00 0.00 0.00 37 1011.9
20180920115747 77 327 8.0 14.0 0.00 0.00 0.00 37 1011.9
20180920115647 77 327 7.0 14.0 0.00 0.00 0.00 37 1011.9
20180920115547 77 326 8.0 14.0 0.00 0.00 0.00 37 1011.9
20180920115448 77 329 7.0 14.0 0.00 0.00 0.00 37 1011.9
20180920115348 77 332 9.0 14.0 0.00 0.00 0.00 37 1011.9
20180920115248 77 333 9.0 14.0 0.00 0.00 0.00 37 1011.9
20180920115147 77 327 9.0 14.0 0.00 0.00 0.00 36 1011.9
20180920115121 77 319 4.0 13.0 0.00 0.00 0.00 37 1011.9
20180920115113 77 318 7.0 13.0 0.00 0.00 0.00 37 1011.9
20180920115015 77 321 7.0 13.0 0.00 0.00 0.00 37 1011.9
20180920114945 77 316 9.0 13.0 0.00 0.00 0.00 37 1011.9
20180920114906 77 308 7.0 15.0 0.00 0.00 0.00 37 1011.9
20180920114700 77 300 5.0 15.0 0.00 0.00 0.00 38 1011.9
20180920114455 77 286 6.0 15.0 0.00 0.00 0.00 37 1011.9
20180920114350 77 283 7.0 15.0 0.00 0.00 0.00 37 1011.9
20180920114248 77 280 8.0 15.0 0.00 0.00 0.00 38 1011.9
20180920114148 77 271 4.0 15.0 0.00 0.00 0.00 38 1011.9
20180920114048 77 269 5.0 15.0 0.00 0.00 0.00 38 1011.9
20180920113947 77 269 5.0 15.0 0.00 0.00 0.00 38 1011.9
20180920113848 77 272 9.0 15.0 0.00 0.00 0.00 38 1011.9
20180920113748 77 272 7.0 15.0 0.00 0.00 0.00 38 1011.9
20180920113648 77 288 10.0 13.0 0.00 0.00 0.00 37 1011.9
20180920113548 77 292 4.0 13.0 0.00 0.00 0.00 38 1011.9
20180920113448 77 298 4.0 13.0 0.00 0.00 0.00 38 1011.9
20180920113347 77 302 8.0 15.0 0.00 0.00 0.00 38 1011.9
20180920113247 77 304 9.0 15.0 0.00 0.00 0.00 37 1011.9
20180920113148 77 308 10.0 16.0 0.00 0.00 0.00 37 1011.9
20180920113048 77 301 6.0 16.0 0.00 0.00 0.00 38 1011.9
20180920112948 77 298 11.0 16.0 0.00 0.00 0.00 37 1011.9
20180920112847 77 295 4.0 16.0 0.00 0.00 0.00 37 1011.9
20180920112747 77 292 11.0 16.0 0.00 0.00 0.00 38 1011.9
20180920112648 77 287 8.0 16.0 0.00 0.00 0.00 37 1011.9
20180920112548 77 285 9.0 16.0 0.00 0.00 0.00 37 1011.9
20180920112448 76 284 9.0 16.0 0.00 0.00 0.00 37 1011.9
20180920112348 76 282 11.0 16.0 0.00 0.00 0.00 37 1011.9
20180920112247 77 281 10.0 16.0 0.00 0.00 0.00 37 1011.9
20180920112148 77 281 9.0 16.0 0.00 0.00 0.00 38 1011.9
20180920112047 77 284 7.0 13.0 0.00 0.00 0.00 38 1011.9
20180920111948 77 289 9.0 15.0 0.00 0.00 0.00 38 1011.9
20180920111848 77 287 5.0 15.0 0.00 0.00 0.00 38 1011.9
20180920111748 77 293 8.0 16.0 0.00 0.00 0.00 39 1011.9
20180920111647 77 295 6.0 16.0 0.00 0.00 0.00 38 1011.9
20180920111547 77 296 4.0 16.0 0.00 0.00 0.00 38 1011.9
20180920111448 77 299 3.0 16.0 0.00 0.00 0.00 38 1011.9
20180920111348 77 306 7.0 16.0 0.00 0.00 0.00 38 1011.9
20180920111248 77 310 6.0 16.0 0.00 0.00 0.00 38 1011.9
20180920111148 77 312 6.0 16.0 0.00 0.00 0.00 38 1011.9
20180920111047 77 314 9.0 16.0 0.00 0.00 0.00 38 1011.9
20180920110947 77 317 9.0 16.0 0.00 0.00 0.00 38 1011.9
20180920110848 77 322 9.0 16.0 0.00 0.00 0.00 39 1011.9
20180920110748 77 320 5.0 13.0 0.00 0.00 0.00 39 1011.9
20180920110648 76 320 9.0 15.0 0.00 0.00 0.00 39 1011.9
20180920110548 77 319 10.0 15.0 0.00 0.00 0.00 38 1011.9
20180920110447 77 319 7.0 15.0 0.00 0.00 0.00 39 1011.9
20180920110347 76 317 8.0 15.0 0.00 0.00 0.00 38 1011.9
20180920110248 77 310 6.0 15.0 0.00 0.00 0.00 39 1011.9
20180920110148 76 308 4.0 15.0 0.00 0.00 0.00 39 1011.9
20180920110048 76 307 7.0 15.0 0.00 0.00 0.00 39 1011.9
20180920105949 76 304 9.0 15.0 0.00 0.00 0.00 38 1011.9
20180920105847 76 296 9.0 15.0 0.00 0.00 0.00 39 1011.9
20180920105747 76 298 9.0 15.0 0.00 0.00 0.00 39 1011.9
20180920105649 77 300 9.0 15.0 0.00 0.00 0.00 39 1011.9
20180920105548 77 295 7.0 15.0 0.00 0.00 0.00 39 1011.9
20180920105448 77 300 4.0 14.0 0.00 0.00 0.00 39 1011.9
20180920105347 77 294 4.0 8.0 0.00 0.00 0.00 39 1011.9
20180920105247 77 299 4.0 8.0 0.00 0.00 0.00 39 1011.9
20180920105148 78 302 4.0 8.0 0.00 0.00 0.00 40 1011.9
20180920105048 77 306 2.0 9.0 0.00 0.00 0.00 40 1011.9
20180920104948 77 305 5.0 9.0 0.00 0.00 0.00 40 1011.9
20180920104848 77 303 8.0 9.0 0.00 0.00 0.00 39 1011.9
20180920104747 77 308 5.0 15.0 0.00 0.00 0.00 39 1011.9
20180920104647 77 305 5.0 15.0 0.00 0.00 0.00 39 1011.9
20180920104548 77 305 6.0 15.0 0.00 0.00 0.00 40 1012.9
20180920104448 77 302 5.0 15.0 0.00 0.00 0.00 39 1012.9
20180920104348 77 303 7.0 15.0 0.00 0.00 0.00 39 1012.9
20180920104248 76 294 10.0 15.0 0.00 0.00 0.00 39 1012.9
20180920104147 77 291 6.0 17.0 0.00 0.00 0.00 39 1012.9
20180920104047 77 289 6.0 17.0 0.00 0.00 0.00 39 1012.9
20180920103947 77 295 6.0 17.0 0.00 0.00 0.00 39 1012.9
20180920103848 76 299 9.0 17.0 0.00 0.00 0.00 38 1012.9
20180920103748 76 294 4.0 17.0 0.00 0.00 0.00 38 1012.9
20180920103648 76 297 10.0 17.0 0.00 0.00 0.00 39 1012.9
20180920103547 76 299 11.0 17.0 0.00 0.00 0.00 38 1012.9
20180920103447 76 304 6.0 17.0 0.00 0.00 0.00 38 1012.9
20180920103348 77 304 14.0 17.0 0.00 0.00 0.00 39 1012.9
20180920103248 77 311 6.0 17.0 0.00 0.00 0.00 39 1012.9
20180920103148 77 325 6.0 9.0 0.00 0.00 0.00 40 1012.9
20180920103048 77 332 7.0 9.0 0.00 0.00 0.00 40 1012.9
20180920102947 77 320 4.0 9.0 0.00 0.00 0.00 40 1012.9
20180920102848 77 317 3.0 9.0 0.00 0.00 0.00 40 1012.9
20180920102748 76 315 2.0 9.0 0.00 0.00 0.00 41 1012.9
20180920102648 76 310 6.0 9.0 0.00 0.00 0.00 40 1012.9
20180920102548 76 304 8.0 9.0 0.00 0.00 0.00 41 1012.9
20180920102448 76 294 4.0 18.0 0.00 0.00 0.00 40 1012.9
20180920102347 76 283 4.0 18.0 0.00 0.00 0.00 40 1012.9
20180920102248 76 282 7.0 18.0 0.00 0.00 0.00 41 1012.9
20180920102148 76 281 6.0 18.0 0.00 0.00 0.00 41 1012.9
20180920102048 76 277 7.0 18.0 0.00 0.00 0.00 41 1012.9
20180920101948 76 271 6.0 18.0 0.00 0.00 0.00 40 1012.9
20180920101848 76 268 4.0 18.0 0.00 0.00 0.00 41 1012.9
20180920101747 76 268 4.0 18.0 0.00 0.00 0.00 41 1012.9
20180920101647 76 268 9.0 18.0 0.00 0.00 0.00 41 1012.9
20180920101548 76 272 9.0 18.0 0.00 0.00 0.00 41 1012.9
20180920101448 76 276 10.0 18.0 0.00 0.00 0.00 41 1012.9
20180920101348 76 283 6.0 15.0 0.00 0.00 0.00 41 1012.9
20180920101248 76 291 6.0 15.0 0.00 0.00 0.00 41 1012.9
20180920101147 76 292 11.0 15.0 0.00 0.00 0.00 41 1012.9
20180920101047 76 294 9.0 15.0 0.00 0.00 0.00 41 1012.9
20180920100948 76 296 11.0 15.0 0.00 0.00 0.00 41 1012.9
20180920100848 76 298 9.0 15.0 0.00 0.00 0.00 41 1012.9
20180920100748 76 300 4.0 13.0 0.00 0.00 0.00 42 1012.9
20180920100647 75 298 9.0 14.0 0.00 0.00 0.00 41 1012.9
20180920100547 75 295 8.0 15.0 0.00 0.00 0.00 42 1012.9
20180920100448 75 292 9.0 15.0 0.00 0.00 0.00 41 1012.9
20180920100348 76 285 8.0 15.0 0.00 0.00 0.00 42 1012.9
20180920100248 76 277 5.0 15.0 0.00 0.00 0.00 42 1012.9
20180920100148 76 272 3.0 15.0 0.00 0.00 0.00 42 1012.9
20180920100047 76 269 7.0 15.0 0.00 0.00 0.00 43 1012.9
20180920095947 76 273 7.0 15.0 0.00 0.00 0.00 42 1012.9
20180920095847 76 281 7.0 15.0 0.00 0.00 0.00 42 1012.9
20180920095748 76 283 9.0 15.0 0.00 0.00 0.00 42 1012.9
20180920095648 76 283 6.0 15.0 0.00 0.00 0.00 43 1012.9
20180920095548 76 297 6.0 13.0 0.00 0.00 0.00 43 1012.9
20180920095447 75 295 6.0 13.0 0.00 0.00 0.00 43 1012.9
20180920095347 75 296 7.0 13.0 0.00 0.00 0.00 43 1012.9
20180920095248 75 304 7.0 13.0 0.00 0.00 0.00 43 1012.9
20180920095148 75 305 9.0 13.0 0.00 0.00 0.00 43 1012.9
20180920095049 75 305 6.0 13.0 0.00 0.00 0.00 43 1012.9
20180920094948 75 300 8.0 13.0 0.00 0.00 0.00 43 1012.9
20180920094847 76 297 4.0 13.0 0.00 0.00 0.00 44 1012.9
20180920094747 75 300 11.0 13.0 0.00 0.00 0.00 44 1012.9
20180920094648 75 306 6.0 13.0 0.00 0.00 0.00 43 1012.9
20180920094548 75 305 9.0 11.0 0.00 0.00 0.00 44 1013.9
20180920094448 75 302 6.0 11.0 0.00 0.00 0.00 44 1013.9
20180920094349 75 295 4.0 11.0 0.00 0.00 0.00 44 1013.9
20180920094248 75 287 5.0 11.0 0.00 0.00 0.00 45 1013.9
20180920094148 75 283 5.0 13.0 0.00 0.00 0.00 45 1013.9
20180920094047 74 288 8.0 13.0 0.00 0.00 0.00 45 1013.9
20180920093948 74 294 7.0 13.0 0.00 0.00 0.00 44 1013.9
20180920093848 74 290 4.0 13.0 0.00 0.00 0.00 45 1013.9
20180920093747 75 287 5.0 13.0 0.00 0.00 0.00 45 1013.9
20180920093647 75 281 7.0 13.0 0.00 0.00 0.00 45 1013.9
20180920093547 75 279 4.0 13.0 0.00 0.00 0.00 46 1013.9
20180920093448 74 281 7.0 13.0 0.00 0.00 0.00 45 1013.9
20180920093348 74 282 8.0 13.0 0.00 0.00 0.00 45 1013.9
20180920093248 74 287 7.0 13.0 0.00 0.00 0.00 45 1013.9
20180920093147 74 294 6.0 11.0 0.00 0.00 0.00 45 1013.9
20180920093047 75 290 3.0 11.0 0.00 0.00 0.00 46 1013.9
20180920092948 75 282 8.0 11.0 0.00 0.00 0.00 46 1013.9
20180920092849 74 279 4.0 11.0 0.00 0.00 0.00 46 1013.9
20180920092749 74 279 8.0 11.0 0.00 0.00 0.00 46 1013.9
20180920092648 74 279 4.0 11.0 0.00 0.00 0.00 46 1013.9
20180920092549 74 280 4.0 11.0 0.00 0.00 0.00 47 1013.9
20180920092449 74 278 7.0 11.0 0.00 0.00 0.00 46 1013.9
20180920092348 74 282 6.0 15.0 0.00 0.00 0.00 46 1013.9
20180920092248 74 282 2.0 15.0 0.00 0.00 0.00 46 1013.9
20180920092148 74 276 5.0 15.0 0.00 0.00 0.00 47 1013.9
20180920092049 74 278 6.0 15.0 0.00 0.00 0.00 46 1013.9
20180920091950 74 280 9.0 15.0 0.00 0.00 0.00 46 1013.9
20180920091851 74 282 7.0 15.0 0.00 0.00 0.00 46 1013.9
20180920091748 74 283 9.0 15.0 0.00 0.00 0.00 46 1013.9
20180920091649 74 278 6.0 15.0 0.00 0.00 0.00 46 1013.9
20180920091550 75 282 10.0 15.0 0.00 0.00 0.00 48 1013.9
20180920091450 75 289 9.0 15.0 0.00 0.00 0.00 48 1013.9
20180920091347 75 286 4.0 9.0 0.00 0.00 0.00 48 1013.9
20180920091247 74 282 2.0 9.0 0.00 0.00 0.00 47 1013.9
20180920091152 74 284 1.0 9.0 0.00 0.00 0.00 48 1013.9
20180920091048 74 283 3.0 9.0 0.00 0.00 0.00 48 1013.9
20180920090948 73 285 3.0 9.0 0.00 0.00 0.00 48 1013.9
20180920090848 73 284 5.0 9.0 0.00 0.00 0.00 48 1013.9
20180920090747 73 285 4.0 9.0 0.00 0.00 0.00 48 1013.9
20180920090647 73 292 6.0 9.0 0.00 0.00 0.00 47 1013.9
20180920090548 73 293 3.0 9.0 0.00 0.00 0.00 49 1013.9
20180920090448 73 286 3.0 9.0 0.00 0.00 0.00 49 1013.9
20180920090348 73 292 4.0 9.0 0.00 0.00 0.00 49 1013.9
20180920090247 73 296 7.0 9.0 0.00 0.00 0.00 49 1013.9
20180920090147 73 291 4.0 9.0 0.00 0.00 0.00 48 1013.9
20180920090048 73 289 4.0 9.0 0.00 0.00 0.00 49 1013.9
20180920085948 73 286 3.0 9.0 0.00 0.00 0.00 49 1013.9
20180920085850 73 286 0.0 9.0 0.00 0.00 0.00 49 1013.9
20180920085748 73 282 4.0 9.0 0.00 0.00 0.00 50 1013.9
20180920085647 72 281 7.0 9.0 0.00 0.00 0.00 49 1013.9
20180920085548 72 275 4.0 8.0 0.00 0.00 0.00 49 1013.9
20180920085448 73 273 5.0 8.0 0.00 0.00 0.00 48 1013.9
20180920085348 73 266 8.0 9.0 0.00 0.00 0.00 48 1013.9
20180920085248 73 262 7.0 9.0 0.00 0.00 0.00 48 1013.9
20180920085148 73 263 5.0 9.0 0.00 0.00 0.00 49 1013.9
20180920085047 73 261 4.0 9.0 0.00 0.00 0.00 50 1013.9
20180920084947 73 261 3.0 9.0 0.00 0.00 0.00 50 1013.9
20180920084847 73 259 4.0 9.0 0.00 0.00 0.00 50 1013.9
20180920084748 73 261 8.0 9.0 0.00 0.00 0.00 49 1013.9
20180920084648 73 259 2.0 9.0 0.00 0.00 0.00 50 1013.9
20180920084548 73 260 4.0 9.0 0.00 0.00 0.00 50 1013.9
20180920084347 72 260 5.0 9.0 0.00 0.00 0.00 50 1013.9
20180920084248 73 262 4.0 8.0 0.00 0.00 0.00 50 1013.9
20180920084148 72 264 3.0 8.0 0.00 0.00 0.00 50 1013.9
20180920084048 72 260 6.0 8.0 0.00 0.00 0.00 50 1013.9
20180920083948 72 263 5.0 8.0 0.00 0.00 0.00 49 1013.9
20180920083847 72 267 6.0 8.0 0.00 0.00 0.00 51 1013.9
20180920083747 72 269 7.0 8.0 0.00 0.00 0.00 50 1013.9
20180920083648 72 277 4.0 8.0 0.00 0.00 0.00 52 1013.9
20180920083548 72 284 3.0 8.0 0.00 0.00 0.00 52 1013.9
20180920083448 72 285 5.0 8.0 0.00 0.00 0.00 51 1013.9
20180920083348 72 291 6.0 8.0 0.00 0.00 0.00 52 1013.9
20180920083247 72 294 3.0 8.0 0.00 0.00 0.00 51 1013.9
20180920083147 72 292 6.0 8.0 0.00 0.00 0.00 55 1013.9
20180920083048 72 299 4.0 8.0 0.00 0.00 0.00 53 1013.9
20180920082948 72 306 1.0 8.0 0.00 0.00 0.00 53 1013.9
20180920082848 71 304 3.0 8.0 0.00 0.00 0.00 52 1013.9
20180920082748 71 299 5.0 8.0 0.00 0.00 0.00 52 1013.9
20180920082647 71 291 2.0 8.0 0.00 0.00 0.00 53 1013.9
20180920082548 71 293 5.0 7.0 0.00 0.00 0.00 53 1013.9
20180920082448 71 285 4.0 7.0 0.00 0.00 0.00 52 1013.9
20180920082348 71 284 4.0 7.0 0.00 0.00 0.00 54 1013.9
20180920082248 71 284 5.0 7.0 0.00 0.00 0.00 54 1013.9
20180920082147 71 283 3.0 7.0 0.00 0.00 0.00 53 1013.9
20180920082048 71 285 4.0 7.0 0.00 0.00 0.00 55 1013.9
20180920081948 71 278 4.0 6.0 0.00 0.00 0.00 55 1013.9
20180920081848 71 281 1.0 6.0 0.00 0.00 0.00 56 1013.9
20180920081748 71 282 2.0 6.0 0.00 0.00 0.00 56 1013.9
20180920081648 71 289 3.0 9.0 0.00 0.00 0.00 55 1013.9
20180920081547 71 293 3.0 9.0 0.00 0.00 0.00 55 1013.9
20180920081447 71 302 3.0 9.0 0.00 0.00 0.00 55 1013.9
20180920081348 71 306 2.0 9.0 0.00 0.00 0.00 55 1013.9
20180920081248 71 307 2.0 9.0 0.00 0.00 0.00 57 1013.9
20180920081148 70 311 4.0 9.0 0.00 0.00 0.00 56 1013.9
20180920081048 70 310 3.0 9.0 0.00 0.00 0.00 56 1013.9
20180920080947 70 310 2.0 9.0 0.00 0.00 0.00 57 1013.9
20180920080849 70 306 3.0 9.0 0.00 0.00 0.00 59 1013.9
20180920080748 69 304 7.0 9.0 0.00 0.00 0.00 59 1013.9
20180920080648 69 297 5.0 8.0 0.00 0.00 0.00 57 1013.9
20180920080548 70 284 5.0 7.0 0.00 0.00 0.00 61 1013.9
20180920080449 70 265 3.0 5.0 0.00 0.00 0.00 61 1013.9
20180920080347 69 258 6.0 5.0 0.00 0.00 0.00 60 1013.9
20180920080247 69 235 3.0 5.0 0.00 0.00 0.00 60 1013.9
20180920080148 69 216 2.0 4.0 0.00 0.00 0.00 62 1013.9
20180920080048 69 195 4.0 4.0 0.00 0.00 0.00 62 1013.9
20180920075948 69 177 3.0 5.0 0.00 0.00 0.00 61 1013.9
20180920075848 69 163 2.0 5.0 0.00 0.00 0.00 62 1013.9
20180920075747 69 159 1.0 5.0 0.00 0.00 0.00 64 1013.9
20180920075647 69 154 1.0 5.0 0.00 0.00 0.00 64 1013.9
20180920075548 69 159 1.0 5.0 0.00 0.00 0.00 65 1013.9
20180920075448 69 160 2.0 5.0 0.00 0.00 0.00 66 1013.9
20180920075348 69 161 3.0 5.0 0.00 0.00 0.00 66 1013.9
20180920075248 69 158 3.0 6.0 0.00 0.00 0.00 66 1013.9
20180920075147 68 159 3.0 6.0 0.00 0.00 0.00 66 1013.9
20180920075047 68 163 3.0 6.0 0.00 0.00 0.00 67 1013.9
20180920074948 68 167 4.0 6.0 0.00 0.00 0.00 67 1013.9
20180920074848 68 166 4.0 6.0 0.00 0.00 0.00 67 1013.9
20180920074748 67 165 2.0 6.0 0.00 0.00 0.00 67 1013.9
20180920074647 67 170 4.0 6.0 0.00 0.00 0.00 68 1013.9
20180920074547 67 164 2.0 6.0 0.00 0.00 0.00 68 1013.9
20180920074448 67 165 3.0 6.0 0.00 0.00 0.00 68 1013.9
20180920074348 67 162 4.0 7.0 0.00 0.00 0.00 69 1013.9
20180920074248 67 161 2.0 7.0 0.00 0.00 0.00 68 1013.9
20180920074148 67 157 0.0 7.0 0.00 0.00 0.00 68 1013.9
20180920074047 67 158 1.0 7.0 0.00 0.00 0.00 68 1013.9
20180920073947 66 157 2.0 7.0 0.00 0.00 0.00 68 1013.9
20180920073847 66 158 4.0 7.0 0.00 0.00 0.00 68 1013.9
20180920073748 67 158 5.0 7.0 0.00 0.00 0.00 68 1013.9
20180920073648 67 156 6.0 7.0 0.00 0.00 0.00 68 1013.9
20180920073548 67 155 6.0 7.0 0.00 0.00 0.00 67 1013.9
20180920073447 67 151 2.0 7.0 0.00 0.00 0.00 68 1013.9
20180920073347 67 152 4.0 7.0 0.00 0.00 0.00 67 1013.9
20180920073247 67 155 3.0 7.0 0.00 0.00 0.00 68 1013.9
20180920073148 67 160 4.0 7.0 0.00 0.00 0.00 68 1013.9
20180920073048 67 159 3.0 7.0 0.00 0.00 0.00 68 1013.9
20180920072948 67 159 5.0 7.0 0.00 0.00 0.00 68 1013.9
20180920072847 67 157 4.0 7.0 0.00 0.00 0.00 68 1013.9
20180920072747 67 159 5.0 7.0 0.00 0.00 0.00 69 1013.9
20180920072647 67 159 6.0 7.0 0.00 0.00 0.00 69 1013.9
20180920072548 67 157 2.0 7.0 0.00 0.00 0.00 70 1013.9
20180920072448 66 167 1.0 5.0 0.00 0.00 0.00 70 1013.9
20180920072348 66 163 3.0 5.0 0.00 0.00 0.00 69 1013.9
20180920072247 66 160 3.0 7.0 0.00 0.00 0.00 68 1013.9
20180920072147 66 157 4.0 7.0 0.00 0.00 0.00 68 1013.9
20180920072047 66 157 4.0 7.0 0.00 0.00 0.00 68 1013.9
20180920071948 67 152 3.0 7.0 0.00 0.00 0.00 68 1013.9
20180920071848 66 157 2.0 7.0 0.00 0.00 0.00 68 1013.9
20180920071748 66 155 2.0 7.0 0.00 0.00 0.00 68 1013.9
20180920071647 66 159 2.0 7.0 0.00 0.00 0.00 68 1014.9
20180920071547 67 165 2.0 7.0 0.00 0.00 0.00 68 1014.9
20180920071448 66 159 4.0 7.0 0.00 0.00 0.00 69 1014.9
20180920071348 67 155 6.0 7.0 0.00 0.00 0.00 69 1014.9
20180920071248 66 153 4.0 7.0 0.00 0.00 0.00 69 1014.9
20180920071147 66 157 2.0 6.0 0.00 0.00 0.00 69 1014.9
20180920071047 66 157 1.0 6.0 0.00 0.00 0.00 67 1014.9
20180920070947 67 157 2.0 7.0 0.00 0.00 0.00 68 1014.9
20180920070848 67 161 1.0 7.0 0.00 0.00 0.00 68 1014.9
20180920070748 67 165 2.0 7.0 0.00 0.00 0.00 68 1014.9
20180920070648 67 168 2.0 7.0 0.00 0.00 0.00 68 1014.9
20180920070547 67 166 5.0 7.0 0.00 0.00 0.00 68 1014.9
20180920070447 67 168 4.0 9.0 0.00 0.00 0.00 67 1014.9
20180920070347 67 176 2.0 9.0 0.00 0.00 0.00 67 1014.9
20180920070248 67 178 3.0 9.0 0.00 0.00 0.00 67 1014.9
20180920070148 67 177 5.0 9.0 0.00 0.00 0.00 68 1014.9
20180920070048 67 179 4.0 9.0 0.00 0.00 0.00 68 1014.9
20180920065947 67 182 5.0 10.0 0.00 0.00 0.00 68 1014.9
20180920065847 67 176 3.0 10.0 0.00 0.00 0.00 68 1014.9
20180920065747 66 171 4.0 10.0 0.00 0.00 0.00 68 1014.9
20180920065648 66 170 4.0 10.0 0.00 0.00 0.00 68 1014.9
20180920065548 66 167 3.0 10.0 0.00 0.00 0.00 68 1014.9
20180920065448 66 166 3.0 10.0 0.00 0.00 0.00 68 1014.9
20180920065347 66 161 2.0 10.0 0.00 0.00 0.00 68 1014.9
20180920065247 66 158 2.0 10.0 0.00 0.00 0.00 68 1014.9
20180920065147 66 152 5.0 10.0 0.00 0.00 0.00 67 1014.9
20180920065048 66 148 9.0 10.0 0.00 0.00 0.00 67 1014.9
20180920064948 67 131 6.0 10.0 0.00 0.00 0.00 66 1014.9
20180920064848 67 127 4.0 9.0 0.00 0.00 0.00 66 1014.9
20180920064747 66 113 5.0 9.0 0.00 0.00 0.00 65 1014.9
20180920064647 67 95 7.0 9.0 0.00 0.00 0.00 65 1014.9
20180920064548 67 82 5.0 9.0 0.00 0.00 0.00 64 1014.9
20180920064448 67 61 2.0 6.0 0.00 0.00 0.00 65 1014.9
20180920064348 67 54 3.0 6.0 0.00 0.00 0.00 66 1014.9
20180920064248 66 53 2.0 6.0 0.00 0.00 0.00 65 1014.9
20180920064147 66 56 4.0 6.0 0.00 0.00 0.00 65 1014.9
20180920064048 66 65 3.0 6.0 0.00 0.00 0.00 65 1014.9
20180920063948 66 87 3.0 5.0 0.00 0.00 0.00 66 1014.9
20180920063848 66 113 4.0 5.0 0.00 0.00 0.00 65 1014.9
20180920063748 66 138 3.0 5.0 0.00 0.00 0.00 65 1014.9
20180920063648 66 150 2.0 4.0 0.00 0.00 0.00 64 1014.9
20180920063547 66 149 2.0 5.0 0.00 0.00 0.00 64 1014.9
20180920063447 66 152 2.0 6.0 0.00 0.00 0.00 64 1014.9
20180920063348 66 155 1.0 6.0 0.00 0.00 0.00 64 1014.9
20180920063248 66 153 1.0 6.0 0.00 0.00 0.00 64 1014.9
20180920063148 67 153 3.0 6.0 0.00 0.00 0.00 64 1014.9
20180920063047 67 150 3.0 6.0 0.00 0.00 0.00 65 1014.9
20180920062947 66 149 3.0 6.0 0.00 0.00 0.00 64 1014.9
20180920062847 67 147 4.0 6.0 0.00 0.00 0.00 65 1014.9
20180920062748 66 144 3.0 6.0 0.00 0.00 0.00 65 1014.9
20180920062648 66 144 5.0 6.0 0.00 0.00 0.00 65 1014.9
20180920062548 66 150 5.0 6.0 0.00 0.00 0.00 65 1014.9
20180920062447 66 162 4.0 5.0 0.00 0.00 0.00 65 1014.9
20180920062347 65 169 1.0 5.0 0.00 0.00 0.00 65 1014.9
20180920062247 65 175 2.0 4.0 0.00 0.00 0.00 65 1014.9
20180920062148 66 178 3.0 4.0 0.00 0.00 0.00 64 1014.9
20180920062048 66 183 2.0 4.0 0.00 0.00 0.00 65 1014.9
20180920061949 66 198 1.0 4.0 0.00 0.00 0.00 66 1014.9
20180920061847 65 206 1.0 4.0 0.00 0.00 0.00 66 1014.9
20180920061747 65 216 1.0 4.0 0.00 0.00 0.00 66 1014.9
20180920061648 65 221 2.0 4.0 0.00 0.00 0.00 66 1014.9
20180920061548 65 231 3.0 4.0 0.00 0.00 0.00 67 1014.9
20180920061448 65 238 3.0 4.0 0.00 0.00 0.00 67 1014.9
20180920061348 65 244 3.0 4.0 0.00 0.00 0.00 67 1014.9
20180920061247 65 255 1.0 3.0 0.00 0.00 0.00 67 1014.9
20180920061147 65 267 0.0 3.0 0.00 0.00 0.00 67 1014.9
20180920061047 65 268 1.0 3.0 0.00 0.00 0.00 66 1014.9
20180920060948 65 269 2.0 3.0 0.00 0.00 0.00 67 1014.9
20180920060849 65 274 1.0 3.0 0.00 0.00 0.00 67 1014.9
20180920060748 65 279 1.0 3.0 0.00 0.00 0.00 67 1014.9
20180920060647 65 281 1.0 3.0 0.00 0.00 0.00 67 1014.9
20180920060547 65 280 1.0 4.0 0.00 0.00 0.00 67 1014.9
20180920060448 65 275 1.0 4.0 0.00 0.00 0.00 68 1014.9
20180920060348 65 278 2.0 4.0 0.00 0.00 0.00 69 1014.9
20180920060248 65 278 1.0 4.0 0.00 0.00 0.00 68 1014.9
20180920060148 64 276 0.0 4.0 0.00 0.00 0.00 68 1014.9
20180920060047 64 279 1.0 6.0 0.00 0.00 0.00 68 1014.9
20180920055947 64 279 0.0 6.0 0.00 0.00 0.00 68 1014.9
20180920055847 64 274 1.0 6.0 0.00 0.00 0.00 69 1014.9
20180920055748 64 277 3.0 6.0 0.00 0.00 0.00 69 1014.9
20180920055648 64 273 2.0 6.0 0.00 0.00 0.00 69 1014.9
20180920055547 64 281 2.0 6.0 0.00 0.00 0.00 70 1014.9
20180920055447 64 287 1.0 6.0 0.00 0.00 0.00 70 1014.9
20180920055347 63 286 1.0 8.0 0.00 0.00 0.00 71 1014.9
20180920055247 63 287 2.0 8.0 0.00 0.00 0.00 71 1014.9
20180920055148 63 286 4.0 8.0 0.00 0.00 0.00 71 1014.9
20180920055048 63 284 3.0 8.0 0.00 0.00 0.00 71 1014.9
20180920054947 63 281 4.0 8.0 0.00 0.00 0.00 70 1014.9
20180920054847 63 283 2.0 8.0 0.00 0.00 0.00 71 1014.9
20180920054747 63 280 2.0 8.0 0.00 0.00 0.00 71 1014.9
20180920054648 62 281 3.0 8.0 0.00 0.00 0.00 70 1014.9
20180920054548 63 278 4.0 8.0 0.00 0.00 0.00 71 1014.9
20180920054448 63 279 6.0 8.0 0.00 0.00 0.00 71 1014.9
20180920054347 62 277 4.0 7.0 0.00 0.00 0.00 70 1014.9
20180920054247 63 276 3.0 7.0 0.00 0.00 0.00 71 1014.9
20180920054147 62 280 4.0 7.0 0.00 0.00 0.00 71 1014.9
20180920054048 62 285 4.0 7.0 0.00 0.00 0.00 71 1014.9
20180920053948 62 285 4.0 6.0 0.00 0.00 0.00 71 1014.9
20180920053848 62 282 4.0 6.0 0.00 0.00 0.00 71 1014.9
20180920053747 62 284 4.0 6.0 0.00 0.00 0.00 72 1014.9
20180920053647 62 282 3.0 6.0 0.00 0.00 0.00 72 1014.9
20180920053548 62 282 2.0 5.0 0.00 0.00 0.00 71 1014.9
20180920053448 62 272 2.0 5.0 0.00 0.00 0.00 73 1014.9
20180920053348 62 272 4.0 5.0 0.00 0.00 0.00 72 1014.9
20180920053248 62 275 3.0 5.0 0.00 0.00 0.00 72 1014.9
20180920053147 62 271 2.0 5.0 0.00 0.00 0.00 72 1014.9
20180920053047 62 266 3.0 5.0 0.00 0.00 0.00 72 1014.9
20180920052948 62 265 2.0 4.0 0.00 0.00 0.00 72 1014.9
20180920052848 62 266 1.0 4.0 0.00 0.00 0.00 73 1014.9
20180920052748 62 265 2.0 4.0 0.00 0.00 0.00 73 1014.9
20180920052648 62 265 2.0 4.0 0.00 0.00 0.00 74 1014.9
20180920052547 62 267 2.0 4.0 0.00 0.00 0.00 74 1014.9
20180920052447 61 269 2.0 4.0 0.00 0.00 0.00 75 1014.9
20180920052347 61 272 1.0 4.0 0.00 0.00 0.00 75 1014.9
20180920052248 61 273 2.0 4.0 0.00 0.00 0.00 74 1014.9
20180920052148 61 272 2.0 5.0 0.00 0.00 0.00 75 1014.9
20180920052047 61 270 1.0 5.0 0.00 0.00 0.00 75 1014.9
20180920051947 61 266 3.0 5.0 0.00 0.00 0.00 75 1014.9
20180920051847 61 266 1.0 5.0 0.00 0.00 0.00 76 1014.9
20180920051748 61 264 1.0 5.0 0.00 0.00 0.00 76 1014.9
20180920051648 61 265 2.0 5.0 0.00 0.00 0.00 76 1014.9
20180920051548 60 263 2.0 6.0 0.00 0.00 0.00 76 1014.9
20180920051447 60 263 3.0 6.0 0.00 0.00 0.00 76 1014.9
20180920051347 60 260 3.0 6.0 0.00 0.00 0.00 77 1014.9
20180920051247 60 261 3.0 6.0 0.00 0.00 0.00 77 1014.9
20180920051147 60 261 2.0 6.0 0.00 0.00 0.00 78 1014.9
20180920051048 60 264 3.0 6.0 0.00 0.00 0.00 77 1014.9
20180920050948 60 266 3.0 6.0 0.00 0.00 0.00 77 1014.9
20180920050847 60 267 2.0 6.0 0.00 0.00 0.00 77 1014.9
20180920050747 60 265 3.0 6.0 0.00 0.00 0.00 77 1014.9
20180920050647 60 266 4.0 6.0 0.00 0.00 0.00 77 1014.9
20180920050548 60 268 4.0 6.0 0.00 0.00 0.00 78 1014.9
20180920050449 60 266 2.0 6.0 0.00 0.00 0.00 78 1014.9
20180920050348 60 263 3.0 6.0 0.00 0.00 0.00 78 1014.9
20180920050247 60 261 5.0 6.0 0.00 0.00 0.00 78 1014.9
20180920050147 60 259 2.0 6.0 0.00 0.00 0.00 78 1014.9
20180920050048 60 260 3.0 6.0 0.00 0.00 0.00 78 1014.9
20180920045948 60 261 3.0 6.0 0.00 0.00 0.00 79 1014.9
20180920045848 59 259 3.0 6.0 0.00 0.00 0.00 78 1014.9
20180920045748 59 259 5.0 6.0 0.00 0.00 0.00 78 1014.9
20180920045647 60 259 2.0 6.0 0.00 0.00 0.00 79 1014.9
20180920045547 59 259 3.0 5.0 0.00 0.00 0.00 79 1014.9
20180920045448 59 260 3.0 5.0 0.00 0.00 0.00 79 1014.9
20180920045348 59 263 3.0 5.0 0.00 0.00 0.00 79 1014.9
20180920045248 59 265 3.0 4.0 0.00 0.00 0.00 79 1014.9
20180920045148 59 268 2.0 4.0 0.00 0.00 0.00 79 1014.9
20180920045047 59 265 2.0 4.0 0.00 0.00 0.00 79 1014.9
20180920044947 59 267 3.0 4.0 0.00 0.00 0.00 79 1014.9
20180920044847 59 272 4.0 4.0 0.00 0.00 0.00 79 1014.9
20180920044748 59 287 4.0 4.0 0.00 0.00 0.00 79 1014.9
20180920044648 59 293 2.0 4.0 0.00 0.00 0.00 79 1014.9
20180920044547 59 300 1.0 4.0 0.00 0.00 0.00 79 1014.9
20180920044447 59 306 2.0 4.0 0.00 0.00 0.00 79 1014.9
20180920044347 59 313 2.0 4.0 0.00 0.00 0.00 79 1014.9
20180920044248 59 319 0.0 4.0 0.00 0.00 0.00 79 1014.9
20180920044148 59 321 1.0 4.0 0.00 0.00 0.00 79 1014.9
20180920044048 59 320 2.0 4.0 0.00 0.00 0.00 79 1014.9
20180920043947 59 321 3.0 4.0 0.00 0.00 0.00 79 1014.9
20180920043848 59 321 2.0 4.0 0.00 0.00 0.00 79 1014.9
20180920043747 59 321 3.0 4.0 0.00 0.00 0.00 79 1014.9
20180920043647 58 318 2.0 4.0 0.00 0.00 0.00 79 1014.9
20180920043548 58 314 3.0 4.0 0.00 0.00 0.00 79 1014.9
20180920043449 58 311 3.0 4.0 0.00 0.00 0.00 79 1014.9
20180920043350 58 308 3.0 4.0 0.00 0.00 0.00 79 1014.9
20180920043248 58 305 3.0 4.0 0.00 0.00 0.00 79 1014.9
20180920043148 58 303 3.0 4.0 0.00 0.00 0.00 79 1014.9
20180920043048 58 302 3.0 4.0 0.00 0.00 0.00 79 1014.9
20180920042948 58 299 4.0 4.0 0.00 0.00 0.00 79 1014.9
20180920042848 58 298 3.0 4.0 0.00 0.00 0.00 79 1014.9
20180920042747 58 298 2.0 3.0 0.00 0.00 0.00 79 1014.9
20180920042647 58 301 3.0 3.0 0.00 0.00 0.00 80 1014.9
20180920042547 58 306 2.0 3.0 0.00 0.00 0.00 80 1014.9
20180920042448 58 308 1.0 3.0 0.00 0.00 0.00 80 1014.9
20180920042348 58 309 2.0 3.0 0.00 0.00 0.00 80 1014.9
20180920042248 58 316 2.0 3.0 0.00 0.00 0.00 80 1014.9
20180920042147 58 318 1.0 3.0 0.00 0.00 0.00 80 1014.9
20180920042047 58 318 1.0 3.0 0.00 0.00 0.00 80 1014.9
20180920041947 58 319 1.0 3.0 0.00 0.00 0.00 80 1014.9
20180920041848 58 322 1.0 3.0 0.00 0.00 0.00 80 1014.9
20180920041748 58 326 2.0 3.0 0.00 0.00 0.00 80 1014.9
20180920041648 58 335 1.0 3.0 0.00 0.00 0.00 80 1014.9
20180920041547 58 341 0.0 3.0 0.00 0.00 0.00 80 1014.9
20180920041447 58 344 1.0 3.0 0.00 0.00 0.00 80 1014.9
20180920041347 58 340 1.0 3.0 0.00 0.00 0.00 81 1014.9
20180920041248 58 328 0.0 3.0 0.00 0.00 0.00 81 1014.9
20180920041148 58 288 0.0 3.0 0.00 0.00 0.00 80 1014.9
20180920041048 58 266 1.0 3.0 0.00 0.00 0.00 81 1014.9
20180920040947 58 247 0.0 3.0 0.00 0.00 0.00 81 1014.9
20180920040847 58 226 2.0 3.0 0.00 0.00 0.00 81 1014.9
20180920040747 58 214 1.0 3.0 0.00 0.00 0.00 81 1014.9
20180920040648 58 201 0.0 2.0 0.00 0.00 0.00 81 1014.9
20180920040548 58 199 0.0 2.0 0.00 0.00 0.00 81 1014.9
20180920040447 58 197 1.0 2.0 0.00 0.00 0.00 81 1014.9
20180920040347 58 195 1.0 2.0 0.00 0.00 0.00 81 1014.9
20180920040247 58 191 1.0 2.0 0.00 0.00 0.00 81 1014.9
20180920040148 58 186 2.0 2.0 0.00 0.00 0.00 81 1014.9
20180920040048 58 180 1.0 2.0 0.00 0.00 0.00 82 1014.9
20180920035948 58 180 1.0 2.0 0.00 0.00 0.00 82 1014.9
20180920035847 58 180 1.0 2.0 0.00 0.00 0.00 81 1014.9
20180920035747 58 180 2.0 2.0 0.00 0.00 0.00 81 1014.9
20180920035647 58 180 1.0 3.0 0.00 0.00 0.00 81 1014.9
20180920035548 58 175 1.0 3.0 0.00 0.00 0.00 81 1014.9
20180920035448 58 175 0.0 3.0 0.00 0.00 0.00 81 1014.9
20180920035348 58 170 0.0 3.0 0.00 0.00 0.00 81 1014.9
20180920035247 58 156 1.0 3.0 0.00 0.00 0.00 81 1014.9
20180920035147 58 117 0.0 3.0 0.00 0.00 0.00 81 1014.9
20180920035047 58 107 0.0 3.0 0.00 0.00 0.00 81 1014.9
20180920034948 58 75 1.0 4.0 0.00 0.00 0.00 82 1014.9
20180920034848 58 52 2.0 4.0 0.00 0.00 0.00 81 1014.9
20180920034748 58 29 1.0 4.0 0.00 0.00 0.00 81 1014.9
20180920034647 58 21 0.0 4.0 0.00 0.00 0.00 81 1014.9
20180920034547 58 15 0.0 4.0 0.00 0.00 0.00 81 1014.9
20180920034447 58 14 1.0 4.0 0.00 0.00 0.00 82 1014.9
20180920034348 58 12 2.0 4.0 0.00 0.00 0.00 82 1014.9
20180920034248 58 5 2.0 4.0 0.00 0.00 0.00 81 1014.9
20180920034148 58 4 2.0 4.0 0.00 0.00 0.00 81 1014.9
20180920034047 57 352 3.0 4.0 0.00 0.00 0.00 82 1014.9
20180920033947 57 351 2.0 3.0 0.00 0.00 0.00 82 1014.9
20180920033847 57 328 2.0 3.0 0.00 0.00 0.00 82 1014.9
20180920033748 57 2 1.0 2.0 0.00 0.00 0.00 82 1014.9
20180920033648 57 45 1.0 2.0 0.00 0.00 0.00 82 1014.9
20180920033548 57 45 0.0 2.0 0.00 0.00 0.00 82 1014.9
20180920033447 57 45 0.0 2.0 0.00 0.00 0.00 82 1014.9
20180920033347 57 45 0.0 2.0 0.00 0.00 0.00 82 1014.9
20180920033248 57 45 0.0 2.0 0.00 0.00 0.00 82 1014.9
20180920033148 57 45 1.0 2.0 0.00 0.00 0.00 82 1014.9
20180920033048 57 45 0.0 2.0 0.00 0.00 0.00 82 1013.9
20180920032947 57 45 0.0 2.0 0.00 0.00 0.00 82 1013.9
20180920032847 57 45 1.0 2.0 0.00 0.00 0.00 82 1013.9
20180920032747 57 45 0.0 2.0 0.00 0.00 0.00 82 1013.9
20180920032647 57 48 1.0 2.0 0.00 0.00 0.00 82 1013.9
20180920032548 57 53 1.0 2.0 0.00 0.00 0.00 82 1013.9
20180920032448 57 56 1.0 2.0 0.00 0.00 0.00 82 1013.9
20180920032347 57 62 2.0 2.0 0.00 0.00 0.00 82 1013.9
20180920032247 57 68 0.0 2.0 0.00 0.00 0.00 83 1013.9
20180920032147 57 77 0.0 2.0 0.00 0.00 0.00 83 1013.9
20180920032048 57 93 0.0 2.0 0.00 0.00 0.00 83 1013.9
20180920031948 57 102 0.0 2.0 0.00 0.00 0.00 82 1013.9
20180920031848 57 108 1.0 2.0 0.00 0.00 0.00 83 1013.9
20180920031747 57 122 1.0 3.0 0.00 0.00 0.00 83 1013.9
20180920031647 57 137 1.0 3.0 0.00 0.00 0.00 83 1013.9
20180920031547 57 149 0.0 3.0 0.00 0.00 0.00 83 1014.9
20180920031447 57 143 1.0 3.0 0.00 0.00 0.00 83 1014.9
20180920031348 56 138 0.0 3.0 0.00 0.00 0.00 83 1014.9
20180920031248 56 139 1.0 3.0 0.00 0.00 0.00 83 1014.9
20180920031147 57 134 1.0 3.0 0.00 0.00 0.00 83 1014.9
20180920031047 57 126 0.0 3.0 0.00 0.00 0.00 83 1014.9
20180920030947 57 124 2.0 3.0 0.00 0.00 0.00 83 1014.9
20180920030848 57 116 1.0 3.0 0.00 0.00 0.00 83 1014.9
20180920030748 57 104 0.0 2.0 0.00 0.00 0.00 83 1014.9
20180920030648 57 99 1.0 2.0 0.00 0.00 0.00 83 1014.9
20180920030547 57 71 0.0 4.0 0.00 0.00 0.00 83 1014.9
20180920030447 57 68 0.0 4.0 0.00 0.00 0.00 83 1014.9
20180920030348 57 108 1.0 4.0 0.00 0.00 0.00 82 1014.9
20180920030248 57 118 0.0 4.0 0.00 0.00 0.00 82 1014.9
20180920030148 57 167 1.0 4.0 0.00 0.00 0.00 83 1014.9
20180920030048 57 169 1.0 4.0 0.00 0.00 0.00 82 1013.9
20180920025947 57 168 1.0 4.0 0.00 0.00 0.00 82 1013.9
20180920025847 57 206 2.0 4.0 0.00 0.00 0.00 82 1013.9
20180920025747 57 218 2.0 4.0 0.00 0.00 0.00 83 1013.9
20180920025648 57 217 2.0 4.0 0.00 0.00 0.00 83 1013.9
20180920025548 57 196 2.0 3.0 0.00 0.00 0.00 82 1013.9
20180920025447 57 222 1.0 4.0 0.00 0.00 0.00 82 1013.9
20180920025347 57 201 1.0 4.0 0.00 0.00 0.00 82 1013.9
20180920025247 57 177 1.0 4.0 0.00 0.00 0.00 82 1013.9
20180920025148 57 306 1.0 6.0 0.00 0.00 0.00 82 1013.9
20180920025048 57 295 0.0 6.0 0.00 0.00 0.00 82 1013.9
20180920024948 57 273 1.0 6.0 0.00 0.00 0.00 82 1013.9
20180920024847 57 260 2.0 6.0 0.00 0.00 0.00 82 1013.9
20180920024747 57 258 0.0 6.0 0.00 0.00 0.00 82 1013.9
20180920024647 57 250 3.0 6.0 0.00 0.00 0.00 82 1013.9
20180920024548 57 288 2.0 6.0 0.00 0.00 0.00 82 1013.9
20180920024449 57 278 2.0 6.0 0.00 0.00 0.00 82 1013.9
20180920024348 57 295 3.0 6.0 0.00 0.00 0.00 82 1013.9
20180920024247 57 296 2.0 6.0 0.00 0.00 0.00 82 1013.9
20180920024147 57 310 1.0 6.0 0.00 0.00 0.00 82 1013.9
20180920024048 57 312 2.0 6.0 0.00 0.00 0.00 82 1013.9
20180920023948 57 319 1.0 6.0 0.00 0.00 0.00 82 1013.9
20180920023848 57 325 1.0 6.0 0.00 0.00 0.00 82 1013.9
20180920023748 57 320 1.0 6.0 0.00 0.00 0.00 82 1013.9
20180920023647 57 321 2.0 6.0 0.00 0.00 0.00 82 1013.9
20180920023547 57 315 1.0 6.0 0.00 0.00 0.00 81 1013.9
20180920023447 57 317 3.0 6.0 0.00 0.00 0.00 81 1013.9
20180920023348 57 318 3.0 8.0 0.00 0.00 0.00 81 1013.9
20180920023248 57 321 4.0 9.0 0.00 0.00 0.00 81 1013.9
20180920023148 57 317 3.0 9.0 0.00 0.00 0.00 81 1013.9
20180920023047 57 317 3.0 9.0 0.00 0.00 0.00 81 1013.9
20180920022947 57 319 3.0 9.0 0.00 0.00 0.00 81 1013.9
20180920022847 57 320 2.0 9.0 0.00 0.00 0.00 81 1013.9
20180920022748 57 322 2.0 9.0 0.00 0.00 0.00 81 1013.9
20180920022648 57 322 3.0 9.0 0.00 0.00 0.00 81 1013.9
20180920022548 57 323 6.0 9.0 0.00 0.00 0.00 81 1013.9
20180920022447 57 321 7.0 9.0 0.00 0.00 0.00 81 1013.9
20180920022347 57 321 6.0 9.0 0.00 0.00 0.00 81 1013.9
20180920022247 57 320 3.0 8.0 0.00 0.00 0.00 81 1013.9
20180920022148 57 318 4.0 8.0 0.00 0.00 0.00 81 1013.9
20180920022048 57 314 4.0 8.0 0.00 0.00 0.00 81 1013.9
20180920021947 57 312 4.0 8.0 0.00 0.00 0.00 81 1013.9
20180920021847 57 310 4.0 9.0 0.00 0.00 0.00 80 1013.9
20180920021747 57 308 4.0 9.0 0.00 0.00 0.00 80 1013.9
20180920021647 57 308 5.0 9.0 0.00 0.00 0.00 80 1013.9
20180920021548 57 305 4.0 9.0 0.00 0.00 0.00 80 1013.9
20180920021448 57 303 4.0 9.0 0.00 0.00 0.00 80 1013.9
20180920021347 57 303 5.0 9.0 0.00 0.00 0.00 80 1013.9
20180920021247 57 305 4.0 10.0 0.00 0.00 0.00 80 1013.9
20180920021147 57 306 5.0 10.0 0.00 0.00 0.00 80 1013.9
20180920021047 57 301 5.0 11.0 0.00 0.00 0.00 80 1013.9
20180920020948 57 301 4.0 11.0 0.00 0.00 0.00 80 1013.9
20180920020848 57 300 3.0 11.0 0.00 0.00 0.00 80 1013.9
20180920020747 57 303 5.0 11.0 0.00 0.00 0.00 80 1013.9
20180920020647 57 301 4.0 11.0 0.00 0.00 0.00 80 1013.9
20180920020547 57 303 3.0 11.0 0.00 0.00 0.00 80 1013.9
20180920020448 57 306 4.0 11.0 0.00 0.00 0.00 80 1013.9
20180920020348 57 301 5.0 11.0 0.00 0.00 0.00 80 1013.9
20180920020248 57 301 6.0 11.0 0.00 0.00 0.00 79 1013.9
20180920020147 57 303 6.0 11.0 0.00 0.00 0.00 79 1013.9
20180920020047 57 312 5.0 11.0 0.00 0.00 0.00 79 1013.9
20180920015947 57 311 5.0 11.0 0.00 0.00 0.00 79 1013.9
20180920015848 57 310 4.0 11.0 0.00 0.00 0.00 79 1013.9
20180920015748 57 306 6.0 11.0 0.00 0.00 0.00 79 1013.9
20180920015648 57 307 6.0 13.0 0.00 0.00 0.00 79 1013.9
20180920015547 57 310 6.0 13.0 0.00 0.00 0.00 79 1013.9
20180920015447 57 307 3.0 13.0 0.00 0.00 0.00 79 1013.9
20180920015347 57 311 6.0 13.0 0.00 0.00 0.00 79 1013.9
20180920015248 57 309 6.0 13.0 0.00 0.00 0.00 79 1013.9
20180920015148 57 308 2.0 13.0 0.00 0.00 0.00 79 1013.9
20180920015048 57 306 6.0 13.0 0.00 0.00 0.00 79 1013.9
20180920014947 57 310 6.0 13.0 0.00 0.00 0.00 79 1013.9
20180920014847 57 309 8.0 13.0 0.00 0.00 0.00 79 1013.9
20180920014747 57 311 6.0 13.0 0.00 0.00 0.00 79 1013.9
20180920014648 57 308 7.0 11.0 0.00 0.00 0.00 79 1013.9
20180920014548 57 314 7.0 11.0 0.00 0.00 0.00 79 1013.9
20180920014447 57 315 6.0 11.0 0.00 0.00 0.00 79 1013.9
20180920014347 57 312 4.0 11.0 0.00 0.00 0.00 79 1013.9
20180920014247 57 311 5.0 11.0 0.00 0.00 0.00 78 1013.9
20180920014147 57 314 3.0 10.0 0.00 0.00 0.00 78 1013.9
20180920014048 57 310 4.0 10.0 0.00 0.00 0.00 78 1013.9
20180920013948 57 308 3.0 10.0 0.00 0.00 0.00 78 1013.9
20180920013847 57 313 5.0 10.0 0.00 0.00 0.00 78 1013.9
20180920013747 57 311 6.0 10.0 0.00 0.00 0.00 78 1013.9
20180920013649 57 313 5.0 10.0 0.00 0.00 0.00 78 1013.9
20180920013548 57 305 3.0 10.0 0.00 0.00 0.00 78 1013.9
20180920013451 57 303 4.0 10.0 0.00 0.00 0.00 78 1013.9
20180920013348 57 305 3.0 10.0 0.00 0.00 0.00 78 1013.9
20180920013247 57 304 4.0 10.0 0.00 0.00 0.00 78 1013.9
20180920013147 57 304 5.0 10.0 0.00 0.00 0.00 78 1013.9
20180920013047 57 306 4.0 10.0 0.00 0.00 0.00 78 1012.9
20180920012948 57 306 6.0 10.0 0.00 0.00 0.00 78 1012.9
20180920012848 57 307 7.0 10.0 0.00 0.00 0.00 78 1012.9
20180920012748 57 308 5.0 10.0 0.00 0.00 0.00 78 1012.9
20180920012647 57 303 6.0 10.0 0.00 0.00 0.00 78 1012.9
20180920012547 57 305 3.0 10.0 0.00 0.00 0.00 78 1012.9
20180920012447 57 305 5.0 10.0 0.00 0.00 0.00 78 1012.9
20180920012348 57 306 7.0 10.0 0.00 0.00 0.00 78 1012.9
20180920012248 57 314 5.0 8.0 0.00 0.00 0.00 78 1012.9
20180920012148 57 314 2.0 8.0 0.00 0.00 0.00 78 1012.9
20180920012047 57 312 2.0 8.0 0.00 0.00 0.00 78 1012.9
20180920011947 57 307 5.0 8.0 0.00 0.00 0.00 78 1012.9
20180920011847 57 306 2.0 8.0 0.00 0.00 0.00 78 1012.9
20180920011747 57 305 4.0 8.0 0.00 0.00 0.00 78 1012.9
20180920011647 57 305 6.0 9.0 0.00 0.00 0.00 78 1012.9
20180920011548 57 307 5.0 10.0 0.00 0.00 0.00 78 1013.9
20180920011447 57 303 3.0 10.0 0.00 0.00 0.00 78 1013.9
20180920011347 57 300 6.0 12.0 0.00 0.00 0.00 78 1013.9
20180920011247 57 297 4.0 12.0 0.00 0.00 0.00 78 1013.9
20180920011147 57 295 4.0 12.0 0.00 0.00 0.00 78 1013.9
20180920011048 57 296 5.0 12.0 0.00 0.00 0.00 78 1013.9
20180920010949 57 303 4.0 12.0 0.00 0.00 0.00 78 1013.9
20180920010847 57 301 5.0 12.0 0.00 0.00 0.00 78 1013.9
20180920010747 57 302 5.0 12.0 0.00 0.00 0.00 78 1013.9
20180920010647 57 304 4.0 12.0 0.00 0.00 0.00 79 1013.9
20180920010548 57 302 4.0 12.0 0.00 0.00 0.00 79 1013.9
20180920010449 57 305 8.0 12.0 0.00 0.00 0.00 79 1013.9
20180920010347 57 309 4.0 11.0 0.00 0.00 0.00 79 1013.9
20180920010248 57 310 7.0 10.0 0.00 0.00 0.00 79 1013.9
20180920010147 57 310 4.0 10.0 0.00 0.00 0.00 80 1013.9
20180920010047 57 315 4.0 9.0 0.00 0.00 0.00 80 1013.9
20180920005948 57 300 4.0 8.0 0.00 0.00 0.00 80 1013.9
20180920005848 57 299 3.0 8.0 0.00 0.00 0.00 80 1013.9
20180920005747 56 293 4.0 8.0 0.00 0.00 0.00 80 1013.9
20180920005647 56 283 4.0 8.0 0.00 0.00 0.00 81 1013.9
20180920005547 56 271 6.0 7.0 0.00 0.00 0.00 81 1013.9
20180920005447 56 257 1.0 6.0 0.00 0.00 0.00 82 1013.9
20180920005348 56 243 1.0 6.0 0.00 0.00 0.00 82 1013.9
20180920005248 56 248 1.0 6.0 0.00 0.00 0.00 82 1013.9
20180920005147 56 259 1.0 6.0 0.00 0.00 0.00 81 1013.9
20180920005047 56 259 1.0 6.0 0.00 0.00 0.00 81 1013.9
20180920004947 56 254 2.0 6.0 0.00 0.00 0.00 82 1013.9
20180920004847 56 246 1.0 6.0 0.00 0.00 0.00 82 1013.9
20180920004748 56 232 1.0 6.0 0.00 0.00 0.00 81 1013.9
20180920004648 56 230 1.0 6.0 0.00 0.00 0.00 82 1013.9
20180920004547 56 221 3.0 6.0 0.00 0.00 0.00 82 1013.9
20180920004447 56 207 2.0 6.0 0.00 0.00 0.00 82 1013.9
20180920004347 56 192 1.0 2.0 0.00 0.00 0.00 82 1013.9
20180920004247 55 186 0.0 2.0 0.00 0.00 0.00 82 1013.9
20180920004148 55 180 1.0 2.0 0.00 0.00 0.00 82 1013.9
20180920004048 55 180 0.0 2.0 0.00 0.00 0.00 82 1013.9
20180920003947 55 180 1.0 2.0 0.00 0.00 0.00 82 1013.9
20180920003847 55 180 1.0 2.0 0.00 0.00 0.00 82 1013.9
20180920003747 55 180 1.0 2.0 0.00 0.00 0.00 82 1013.9
20180920003648 55 180 1.0 2.0 0.00 0.00 0.00 82 1013.9
20180920003548 55 180 1.0 2.0 0.00 0.00 0.00 82 1013.9
20180920003448 55 180 1.0 2.0 0.00 0.00 0.00 83 1013.9
20180920003347 55 180 1.0 3.0 0.00 0.00 0.00 82 1013.9
20180920003247 55 182 1.0 3.0 0.00 0.00 0.00 83 1013.9
20180920003147 55 182 0.0 3.0 0.00 0.00 0.00 83 1013.9
20180920003047 55 185 1.0 3.0 0.00 0.00 0.00 83 1013.9
20180920002948 55 185 1.0 3.0 0.00 0.00 0.00 83 1013.9
20180920002847 55 190 0.0 3.0 0.00 0.00 0.00 83 1013.9
20180920002747 55 198 1.0 3.0 0.00 0.00 0.00 83 1013.9
20180920002647 55 201 1.0 3.0 0.00 0.00 0.00 83 1013.9
20180920002547 55 204 2.0 3.0 0.00 0.00 0.00 83 1013.9
20180920002448 55 208 3.0 3.0 0.00 0.00 0.00 84 1013.9
20180920002348 55 219 0.0 3.0 0.00 0.00 0.00 84 1013.9
20180920002247 55 225 0.0 2.0 0.00 0.00 0.00 84 1013.9
20180920002147 55 225 0.0 2.0 0.00 0.00 0.00 84 1013.9
20180920002047 55 225 0.0 2.0 0.00 0.00 0.00 84 1013.9
20180920001947 55 225 1.0 2.0 0.00 0.00 0.00 84 1013.9
20180920001848 55 225 2.0 2.0 0.00 0.00 0.00 84 1013.9
20180920001748 55 225 0.0 2.0 0.00 0.00 0.00 84 1013.9
20180920001647 55 225 0.0 2.0 0.00 0.00 0.00 84 1013.9
20180920001547 55 225 1.0 2.0 0.00 0.00 0.00 84 1013.9
20180920001447 55 225 1.0 2.0 0.00 0.00 0.00 84 1013.9
20180920001347 55 225 1.0 2.0 0.00 0.00 0.00 84 1013.9
20180920001248 55 225 1.0 2.0 0.00 0.00 0.00 84 1013.9
20180920001148 55 225 0.0 2.0 0.00 0.00 0.00 84 1013.9
20180920001047 55 225 1.0 2.0 0.00 0.00 0.00 84 1013.9
20180920000948 55 225 0.0 2.0 0.00 0.00 0.00 84 1013.9
20180920000849 55 225 0.0 2.0 0.00 0.00 0.00 84 1013.9
20180920000748 55 225 1.0 2.0 0.00 0.00 0.00 84 1013.9
20180920000648 55 225 1.0 2.0 0.00 0.00 0.00 84 1013.9
20180920000549 55 225 1.0 2.0 0.00 0.00 0.00 84 1013.9
20180920000447 55 225 0.0 2.0 0.00 0.00 0.00 84 1013.9
20180920000347 55 225 0.0 2.0 0.00 0.00 0.00 84 1013.9
20180920000247 55 225 1.0 2.0 0.00 0.00 0.00 85 1013.9
20180920000148 55 225 1.0 2.0 0.00 0.00 0.00 84 1013.9
20180920000048 55 225 1.0 2.0 0.00 0.00 0.00 84 1013.9
20180919235948 55 225 2.0 2.0 0.00 0.00 0.00 84 1013.9
20180919235847 55 225 1.0 2.0 0.00 0.00 0.00 84 1013.9
20180919235747 55 225 1.0 2.0 0.00 0.00 0.00 84 1013.9
20180919235647 55 225 0.0 2.0 0.00 0.00 0.00 84 1013.9
20180919235548 55 225 1.0 2.0 0.00 0.00 0.00 84 1013.9
20180919235448 55 225 1.0 2.0 0.00 0.00 0.00 84 1013.9
20180919235348 55 225 1.0 2.0 0.00 0.00 0.00 84 1013.9
20180919235247 55 225 1.0 2.0 0.00 0.00 0.00 84 1013.9
20180919235147 55 225 1.0 2.0 0.00 0.00 0.00 84 1013.9
20180919235047 55 225 1.0 2.0 0.00 0.00 0.00 84 1013.9
20180919234947 55 225 1.0 2.0 0.00 0.00 0.00 84 1013.9
20180919234848 55 225 1.0 2.0 0.00 0.00 0.00 84 1013.9
20180919234747 55 225 1.0 2.0 0.00 0.00 0.00 84 1013.9
20180919234647 55 225 1.0 2.0 0.00 0.00 0.00 84 1013.9
20180919234547 56 225 1.0 2.0 0.00 0.00 0.00 84 1013.9
20180919234447 56 225 1.0 2.0 0.00 0.00 0.00 84 1013.9
20180919234348 56 225 0.0 1.0 0.00 0.00 0.00 84 1013.9
20180919234248 56 225 0.0 2.0 0.00 0.00 0.00 84 1013.9
20180919234147 56 225 0.0 2.0 0.00 0.00 0.00 84 1013.9
20180919234047 56 225 0.0 2.0 0.00 0.00 0.00 84 1013.9
20180919233950 56 225 0.0 2.0 0.00 0.00 0.00 84 1013.9
20180919233847 56 225 0.0 2.0 0.00 0.00 0.00 84 1013.9
20180919233747 56 225 0.0 2.0 0.00 0.00 0.00 84 1013.9
20180919233648 56 225 0.0 2.0 0.00 0.00 0.00 84 1013.9
20180919233547 56 225 0.0 2.0 0.00 0.00 0.00 84 1013.9
20180919233447 56 225 1.0 2.0 0.00 0.00 0.00 84 1013.9
20180919233347 56 225 2.0 2.0 0.00 0.00 0.00 84 1013.9
20180919233247 56 225 1.0 2.0 0.00 0.00 0.00 84 1013.9
20180919233148 56 225 0.0 2.0 0.00 0.00 0.00 84 1013.9
20180919233048 56 225 0.0 2.0 0.00 0.00 0.00 84 1014.9
20180919232947 56 225 0.0 2.0 0.00 0.00 0.00 84 1014.9
20180919232847 56 225 0.0 2.0 0.00 0.00 0.00 84 1014.9
20180919232747 56 225 1.0 2.0 0.00 0.00 0.00 84 1014.9
20180919232648 56 225 1.0 2.0 0.00 0.00 0.00 83 1014.9
20180919232548 56 225 1.0 2.0 0.00 0.00 0.00 83 1014.9
20180919232448 56 225 1.0 2.0 0.00 0.00 0.00 83 1014.9
20180919232347 56 225 2.0 2.0 0.00 0.00 0.00 83 1014.9
20180919232247 56 225 1.0 2.0 0.00 0.00 0.00 83 1014.9
20180919232147 56 225 0.0 2.0 0.00 0.00 0.00 83 1014.9
20180919232047 56 225 1.0 2.0 0.00 0.00 0.00 83 1014.9
20180919231948 56 225 1.0 2.0 0.00 0.00 0.00 83 1014.9
20180919231848 56 225 1.0 2.0 0.00 0.00 0.00 83 1014.9
20180919231747 56 225 0.0 2.0 0.00 0.00 0.00 84 1014.9
20180919231647 56 225 0.0 2.0 0.00 0.00 0.00 84 1014.9
20180919231547 56 225 1.0 2.0 0.00 0.00 0.00 83 1013.9
20180919231447 56 225 1.0 2.0 0.00 0.00 0.00 83 1013.9
20180919231348 56 225 0.0 2.0 0.00 0.00 0.00 83 1013.9
20180919231248 56 225 0.0 1.0 0.00 0.00 0.00 84 1013.9
20180919231147 56 225 0.0 1.0 0.00 0.00 0.00 83 1013.9
20180919231047 56 225 0.0 1.0 0.00 0.00 0.00 83 1013.9
20180919230947 56 225 0.0 1.0 0.00 0.00 0.00 82 1013.9
20180919230848 56 225 0.0 1.0 0.00 0.00 0.00 83 1013.9
20180919230748 56 225 0.0 1.0 0.00 0.00 0.00 83 1013.9
20180919230647 56 225 0.0 2.0 0.00 0.00 0.00 83 1013.9
20180919230547 56 225 0.0 2.0 0.00 0.00 0.00 83 1013.9
20180919230447 56 225 0.0 2.0 0.00 0.00 0.00 83 1013.9
20180919230348 56 225 1.0 2.0 0.00 0.00 0.00 82 1013.9
20180919230247 56 225 1.0 2.0 0.00 0.00 0.00 82 1013.9
20180919230148 56 225 0.0 2.0 0.00 0.00 0.00 82 1013.9
20180919230048 56 225 0.0 2.0 0.00 0.00 0.00 82 1013.9
20180919225947 56 225 1.0 2.0 0.00 0.00 0.00 82 1013.9
20180919225847 56 225 1.0 2.0 0.00 0.00 0.00 82 1013.9
20180919225748 56 225 1.0 2.0 0.00 0.00 0.00 82 1013.9
20180919225648 56 225 1.0 2.0 0.00 0.00 0.00 82 1013.9
20180919225548 56 225 1.0 2.0 0.00 0.00 0.00 82 1013.9
20180919225447 56 225 0.0 2.0 0.00 0.00 0.00 82 1013.9
20180919225347 56 225 0.0 2.0 0.00 0.00 0.00 82 1013.9
20180919225247 56 225 0.0 2.0 0.00 0.00 0.00 82 1013.9
20180919225148 56 225 1.0 2.0 0.00 0.00 0.00 82 1013.9
20180919225048 56 225 1.0 2.0 0.00 0.00 0.00 82 1013.9
20180919224948 56 225 1.0 2.0 0.00 0.00 0.00 82 1013.9
20180919224847 57 225 1.0 2.0 0.00 0.00 0.00 82 1013.9
20180919224747 57 225 1.0 2.0 0.00 0.00 0.00 82 1013.9
20180919224647 57 225 1.0 1.0 0.00 0.00 0.00 82 1013.9
20180919224547 57 225 0.0 1.0 0.00 0.00 0.00 82 1014.9
20180919224448 57 225 0.0 1.0 0.00 0.00 0.00 82 1014.9
20180919224348 57 225 0.0 1.0 0.00 0.00 0.00 82 1014.9
20180919224247 57 225 0.0 1.0 0.00 0.00 0.00 82 1014.9
20180919224147 57 225 0.0 2.0 0.00 0.00 0.00 82 1014.9
20180919224047 57 226 0.0 2.0 0.00 0.00 0.00 82 1014.9
20180919223947 57 237 0.0 2.0 0.00 0.00 0.00 81 1014.9
20180919223848 57 241 0.0 2.0 0.00 0.00 0.00 81 1014.9
20180919223747 57 244 0.0 2.0 0.00 0.00 0.00 81 1014.9
20180919223647 57 247 0.0 2.0 0.00 0.00 0.00 81 1014.9
20180919223547 57 250 0.0 2.0 0.00 0.00 0.00 81 1014.9
20180919223447 57 253 1.0 2.0 0.00 0.00 0.00 81 1014.9
20180919223348 57 255 1.0 2.0 0.00 0.00 0.00 81 1014.9
20180919223248 57 262 0.0 2.0 0.00 0.00 0.00 81 1014.9
20180919223147 57 268 1.0 2.0 0.00 0.00 0.00 81 1014.9
20180919223047 57 270 1.0 2.0 0.00 0.00 0.00 81 1014.9
20180919222947 57 270 1.0 2.0 0.00 0.00 0.00 81 1014.9
20180919222847 57 270 1.0 2.0 0.00 0.00 0.00 81 1014.9
20180919222748 57 270 0.0 1.0 0.00 0.00 0.00 81 1014.9
20180919222648 57 270 0.0 1.0 0.00 0.00 0.00 81 1014.9
20180919222547 57 270 1.0 1.0 0.00 0.00 0.00 81 1014.9
20180919222447 57 270 1.0 1.0 0.00 0.00 0.00 81 1014.9
20180919222347 57 270 0.0 1.0 0.00 0.00 0.00 81 1014.9
20180919222247 57 270 0.0 1.0 0.00 0.00 0.00 81 1014.9
20180919222148 57 270 0.0 1.0 0.00 0.00 0.00 80 1014.9
20180919222048 57 270 0.0 1.0 0.00 0.00 0.00 80 1014.9
20180919221947 57 270 0.0 1.0 0.00 0.00 0.00 80 1014.9
20180919221847 57 270 0.0 1.0 0.00 0.00 0.00 80 1014.9
20180919221747 57 270 0.0 1.0 0.00 0.00 0.00 80 1014.9
20180919221648 57 270 0.0 1.0 0.00 0.00 0.00 80 1014.9
20180919221548 57 270 0.0 1.0 0.00 0.00 0.00 80 1013.9
20180919221448 57 270 0.0 1.0 0.00 0.00 0.00 80 1013.9
20180919221347 57 270 0.0 1.0 0.00 0.00 0.00 81 1013.9
20180919221247 57 270 0.0 1.0 0.00 0.00 0.00 81 1013.9
20180919221147 57 270 0.0 1.0 0.00 0.00 0.00 81 1013.9
20180919221048 57 270 0.0 1.0 0.00 0.00 0.00 81 1013.9
20180919220948 57 270 0.0 1.0 0.00 0.00 0.00 81 1013.9
20180919220848 57 270 0.0 1.0 0.00 0.00 0.00 81 1013.9
20180919220747 57 270 1.0 1.0 0.00 0.00 0.00 81 1013.9
20180919220647 57 270 0.0 1.0 0.00 0.00 0.00 80 1013.9
20180919220547 57 270 0.0 1.0 0.00 0.00 0.00 80 1013.9
20180919220447 57 270 0.0 1.0 0.00 0.00 0.00 80 1013.9
20180919220348 57 270 1.0 1.0 0.00 0.00 0.00 80 1013.9
20180919220248 57 270 0.0 1.0 0.00 0.00 0.00 80 1013.9
20180919220147 57 270 0.0 1.0 0.00 0.00 0.00 80 1013.9
20180919220047 57 270 0.0 2.0 0.00 0.00 0.00 80 1013.9
20180919215947 57 270 0.0 2.0 0.00 0.00 0.00 80 1013.9
20180919215848 57 268 0.0 2.0 0.00 0.00 0.00 79 1013.9
20180919215748 57 263 0.0 2.0 0.00 0.00 0.00 79 1013.9
20180919215647 57 261 0.0 2.0 0.00 0.00 0.00 79 1013.9
20180919215547 57 258 0.0 3.0 0.00 0.00 0.00 79 1013.9
20180919215447 57 259 0.0 3.0 0.00 0.00 0.00 79 1013.9
20180919215347 57 259 1.0 3.0 0.00 0.00 0.00 79 1013.9
20180919215248 57 260 1.0 3.0 0.00 0.00 0.00 79 1013.9
20180919215148 57 261 1.0 3.0 0.00 0.00 0.00 79 1013.9
20180919215047 57 261 2.0 3.0 0.00 0.00 0.00 79 1013.9
20180919214947 57 260 1.0 3.0 0.00 0.00 0.00 79 1013.9
20180919214847 57 262 1.0 3.0 0.00 0.00 0.00 79 1013.9
20180919214747 57 265 1.0 3.0 0.00 0.00 0.00 79 1013.9
20180919214647 57 265 1.0 3.0 0.00 0.00 0.00 79 1013.9
20180919214548 57 267 2.0 3.0 0.00 0.00 0.00 79 1014.9
20180919214447 57 270 2.0 3.0 0.00 0.00 0.00 79 1014.9
20180919214347 57 270 2.0 3.0 0.00 0.00 0.00 79 1014.9
20180919214247 57 270 1.0 3.0 0.00 0.00 0.00 79 1014.9
20180919214147 57 270 1.0 3.0 0.00 0.00 0.00 79 1014.9
20180919214047 57 270 1.0 3.0 0.00 0.00 0.00 79 1014.9
20180919213948 57 270 1.0 3.0 0.00 0.00 0.00 79 1014.9
20180919213847 57 270 1.0 3.0 0.00 0.00 0.00 79 1014.9
20180919213747 57 270 0.0 3.0 0.00 0.00 0.00 78 1014.9
20180919213647 57 270 0.0 3.0 0.00 0.00 0.00 78 1014.9
20180919213547 57 270 1.0 3.0 0.00 0.00 0.00 78 1014.9
20180919213448 57 270 0.0 3.0 0.00 0.00 0.00 78 1014.9
20180919213348 57 270 0.0 2.0 0.00 0.00 0.00 78 1014.9
20180919213247 57 277 2.0 2.0 0.00 0.00 0.00 78 1014.9
20180919213147 57 279 1.0 2.0 0.00 0.00 0.00 78 1014.9
20180919213047 57 292 1.0 2.0 0.00 0.00 0.00 78 1014.9
20180919212947 57 305 1.0 2.0 0.00 0.00 0.00 78 1014.9
20180919212848 57 319 0.0 2.0 0.00 0.00 0.00 78 1014.9
20180919212748 57 326 0.0 3.0 0.00 0.00 0.00 78 1014.9
20180919212647 57 325 0.0 3.0 0.00 0.00 0.00 78 1014.9
20180919212547 57 322 1.0 3.0 0.00 0.00 0.00 78 1014.9
20180919212447 57 320 1.0 3.0 0.00 0.00 0.00 78 1014.9
20180919212347 57 322 1.0 3.0 0.00 0.00 0.00 77 1014.9
20180919212248 57 323 1.0 3.0 0.00 0.00 0.00 77 1014.9
20180919212148 57 323 1.0 3.0 0.00 0.00 0.00 77 1014.9
20180919212047 57 319 1.0 3.0 0.00 0.00 0.00 77 1014.9
20180919211947 57 317 2.0 3.0 0.00 0.00 0.00 77 1014.9
20180919211847 57 314 2.0 3.0 0.00 0.00 0.00 76 1014.9
20180919211747 57 311 2.0 3.0 0.00 0.00 0.00 76 1014.9
20180919211648 58 311 2.0 3.0 0.00 0.00 0.00 76 1014.9
20180919211547 58 310 2.0 3.0 0.00 0.00 0.00 76 1014.9
20180919211447 57 315 2.0 3.0 0.00 0.00 0.00 76 1014.9
20180919211347 57 315 2.0 3.0 0.00 0.00 0.00 76 1014.9
20180919211247 58 320 1.0 3.0 0.00 0.00 0.00 76 1014.9
20180919211147 58 330 1.0 3.0 0.00 0.00 0.00 76 1014.9
20180919211048 58 330 1.0 3.0 0.00 0.00 0.00 76 1014.9
20180919210947 58 329 0.0 3.0 0.00 0.00 0.00 76 1014.9
20180919210847 58 323 0.0 3.0 0.00 0.00 0.00 76 1014.9
20180919210747 58 320 1.0 3.0 0.00 0.00 0.00 76 1014.9
20180919210648 58 318 1.0 3.0 0.00 0.00 0.00 76 1014.9
20180919210547 58 317 1.0 3.0 0.00 0.00 0.00 75 1014.9
20180919210448 58 318 1.0 3.0 0.00 0.00 0.00 75 1014.9
20180919210347 58 318 3.0 3.0 0.00 0.00 0.00 75 1014.9
20180919210247 58 317 2.0 3.0 0.00 0.00 0.00 75 1014.9
20180919210147 58 308 1.0 3.0 0.00 0.00 0.00 75 1014.9
20180919210047 58 309 1.0 3.0 0.00 0.00 0.00 75 1014.9
20180919205948 58 311 1.0 3.0 0.00 0.00 0.00 75 1014.9
20180919205848 58 313 2.0 3.0 0.00 0.00 0.00 75 1014.9
20180919205747 58 315 1.0 4.0 0.00 0.00 0.00 74 1014.9
20180919205647 58 317 2.0 4.0 0.00 0.00 0.00 74 1014.9
20180919205547 58 314 1.0 4.0 0.00 0.00 0.00 75 1014.9
20180919205447 58 309 1.0 4.0 0.00 0.00 0.00 75 1014.9
20180919205348 58 307 2.0 4.0 0.00 0.00 0.00 74 1014.9
20180919205248 58 302 2.0 4.0 0.00 0.00 0.00 74 1014.9
20180919205147 58 300 1.0 4.0 0.00 0.00 0.00 74 1014.9
20180919205047 58 299 2.0 4.0 0.00 0.00 0.00 74 1014.9
20180919204947 58 299 3.0 4.0 0.00 0.00 0.00 74 1014.9
20180919204847 58 296 3.0 4.0 0.00 0.00 0.00 74 1014.9
20180919204748 58 290 1.0 3.0 0.00 0.00 0.00 75 1014.9
20180919204648 58 278 2.0 4.0 0.00 0.00 0.00 75 1014.9
20180919204547 58 275 1.0 4.0 0.00 0.00 0.00 75 1014.9
20180919204447 58 275 2.0 4.0 0.00 0.00 0.00 75 1014.9
20180919204347 58 276 2.0 4.0 0.00 0.00 0.00 75 1014.9
20180919204248 58 284 2.0 4.0 0.00 0.00 0.00 74 1014.9
20180919204148 58 283 1.0 4.0 0.00 0.00 0.00 74 1014.9
20180919204048 58 279 2.0 4.0 0.00 0.00 0.00 74 1014.9
20180919203947 58 269 1.0 4.0 0.00 0.00 0.00 74 1014.9
20180919203848 58 264 2.0 4.0 0.00 0.00 0.00 74 1014.9
20180919203748 58 270 3.0 4.0 0.00 0.00 0.00 74 1014.9
20180919203647 58 295 0.0 4.0 0.00 0.00 0.00 73 1014.9
20180919203548 58 315 0.0 1.0 0.00 0.00 0.00 74 1014.9
20180919203447 58 315 1.0 1.0 0.00 0.00 0.00 74 1014.9